MB7UIK Weather Reports


time (UTC)temp
F
wind
direction
speed
knots
gust
knots
rain 1hr
in
rain 24hr
in
rain mn
in
humidity
%
barometer
mb
20260507193212 55 82 0.0 1.7 0.00 0.00 0.00 100 1015.5
20260507193113 55 78 0.9 1.7 0.00 0.00 0.00 100 1015.6
20260507193013 55 78 0.0 1.7 0.00 0.00 0.00 100 1015.6
20260507192913 55 78 0.9 1.7 0.00 0.00 0.00 100 1015.6
20260507192813 55 77 0.0 1.7 0.00 0.00 0.00 100 1015.6
20260507192713 55 77 0.9 1.7 0.00 0.00 0.00 100 1015.6
20260507192613 55 77 0.0 1.7 0.00 0.00 0.00 100 1015.6
20260507192513 55 77 0.0 1.7 0.00 0.00 0.00 100 1015.6
20260507192413 55 77 0.9 1.7 0.00 0.00 0.00 100 1015.6
20260507192313 55 55 0.9 0.9 0.00 0.00 0.00 100 1015.6
20260507192212 55 55 0.0 1.7 0.00 0.00 0.00 100 1015.6
20260507192112 55 55 1.7 1.7 0.00 0.00 0.00 100 1015.6
20260507192012 55 55 0.9 1.7 0.00 0.00 0.00 100 1015.6
20260507191912 55 59 0.0 1.7 0.00 0.00 0.00 100 1015.5
20260507191811 55 59 0.9 1.7 0.00 0.00 0.00 100 1015.6
20260507191712 55 30 0.9 1.7 0.00 0.00 0.00 100 1015.5
20260507191612 55 39 0.0 1.7 0.00 0.00 0.00 100 1015.6
20260507191512 55 33 0.9 1.7 0.00 0.00 0.00 100 1015.6
20260507191412 55 36 0.9 1.7 0.00 0.00 0.00 100 1015.5
20260507191313 55 40 0.0 1.7 0.00 0.00 0.00 100 1015.6
20260507191213 55 40 0.9 1.7 0.00 0.00 0.00 100 1015.6
20260507191113 55 40 0.0 1.7 0.00 0.00 0.00 100 1015.6
20260507191013 55 40 0.0 1.7 0.00 0.00 0.00 100 1015.6
20260507190913 55 40 0.0 1.7 0.00 0.00 0.00 100 1015.5
20260507190812 55 40 0.9 1.7 0.00 0.00 0.00 100 1015.5
20260507190712 55 40 0.9 1.7 0.00 0.00 0.00 100 1015.5
20260507190612 55 38 1.7 1.7 0.00 0.00 0.00 100 1015.5
20260507190512 55 38 0.0 0.9 0.00 0.00 0.00 100 1015.5
20260507190412 55 38 0.0 0.9 0.00 0.00 0.00 100 1015.4
20260507190313 56 38 0.0 0.9 0.00 0.00 0.00 100 1015.5
20260507190213 56 38 0.9 2.6 0.00 0.00 0.00 100 1015.5
20260507190113 56 39 1.7 2.6 0.00 0.00 0.00 100 1015.5
20260507190013 56 59 0.9 2.6 0.00 0.00 0.00 100 1015.5
20260507185913 56 34 0.9 2.6 0.00 0.00 0.00 100 1015.5
20260507185812 56 22 0.9 2.6 0.00 0.00 0.00 100 1015.5
20260507185712 56 40 1.7 2.6 0.00 0.00 0.00 100 1015.4
20260507185612 56 40 0.9 1.7 0.00 0.00 0.00 100 1015.4
20260507185512 56 40 0.9 1.7 0.00 0.00 0.00 100 1015.4
20260507185412 56 40 0.0 1.7 0.00 0.00 0.00 100 1015.4
20260507185312 56 40 0.9 1.7 0.00 0.00 0.00 100 1015.4
20260507185212 56 44 1.7 2.6 0.00 0.00 0.00 100 1015.4
20260507185113 56 45 0.9 2.6 0.00 0.00 0.00 100 1015.4
20260507185013 56 48 1.7 2.6 0.00 0.00 0.00 100 1015.4
20260507184913 56 28 0.9 2.6 0.00 0.00 0.00 100 1015.4
20260507184813 56 42 2.6 2.6 0.00 0.00 0.00 100 1015.4
20260507184713 56 39 0.9 1.7 0.00 0.00 0.00 100 1015.4
20260507184612 56 71 0.0 1.7 0.00 0.00 0.00 100 1015.4
20260507184513 56 71 1.7 1.7 0.00 0.00 0.00 100 1015.4
20260507184413 56 72 0.9 1.7 0.00 0.00 0.00 100 1015.4
20260507184313 56 72 0.9 1.7 0.00 0.00 0.00 100 1015.4
20260507184213 56 72 0.9 2.6 0.00 0.00 0.00 100 1015.4
20260507184113 56 51 0.9 2.6 0.00 0.00 0.00 100 1015.3
20260507184013 56 51 0.9 2.6 0.00 0.00 0.00 100 1015.4
20260507183911 56 43 1.7 2.6 0.00 0.00 0.00 100 1015.4
20260507183811 56 46 1.7 2.6 0.00 0.00 0.00 100 1015.4
20260507183713 56 62 0.0 2.6 0.00 0.00 0.00 100 1015.4
20260507183613 56 80 1.7 1.7 0.00 0.00 0.00 100 1015.4
20260507183513 56 84 0.0 1.7 0.00 0.00 0.00 100 1015.4
20260507183413 56 87 1.7 1.7 0.00 0.00 0.00 100 1015.4
20260507183313 56 90 1.7 1.7 0.00 0.00 0.00 100 1015.4
20260507183213 56 42 1.7 2.6 0.00 0.00 0.00 100 1015.4
20260507183112 56 60 0.9 2.6 0.00 0.00 0.00 100 1015.4
20260507183012 56 60 0.0 2.6 0.00 0.00 0.00 100 1015.4
20260507182913 56 70 0.9 2.6 0.00 0.00 0.00 100 1015.4
20260507182813 56 63 1.7 2.6 0.00 0.00 0.00 100 1015.4
20260507182713 56 80 0.9 2.6 0.00 0.00 0.00 100 1015.4
20260507182613 56 60 0.0 2.6 0.00 0.00 0.00 100 1015.3
20260507182512 56 65 2.6 2.6 0.00 0.00 0.00 100 1015.4
20260507182412 56 74 0.0 2.6 0.00 0.00 0.00 100 1015.4
20260507182312 56 87 1.7 2.6 0.00 0.00 0.00 100 1015.4
20260507182212 56 94 1.7 2.6 0.00 0.00 0.00 100 1015.3
20260507182112 56 45 1.7 2.6 0.00 0.00 0.00 100 1015.4
20260507182013 56 76 0.9 2.6 0.00 0.00 0.00 100 1015.3
20260507181913 56 78 1.7 2.6 0.00 0.00 0.00 100 1015.3
20260507181813 56 83 2.6 2.6 0.00 0.00 0.00 100 1015.3
20260507181712 56 57 1.7 2.6 0.00 0.00 0.00 100 1015.4
20260507181612 56 58 0.9 2.6 0.00 0.00 0.00 100 1015.3
20260507181512 56 32 1.7 2.6 0.00 0.00 0.00 100 1015.4
20260507181412 56 77 0.9 2.6 0.00 0.00 0.00 100 1015.3
20260507181312 56 80 0.9 2.6 0.00 0.00 0.00 100 1015.4
20260507181212 56 47 0.9 2.6 0.00 0.00 0.00 100 1015.4
20260507181113 56 78 2.6 2.6 0.00 0.00 0.00 100 1015.4
20260507181013 56 71 0.0 1.7 0.00 0.00 0.00 100 1015.4
20260507180913 56 44 1.7 1.7 0.00 0.00 0.00 100 1015.4
20260507180813 56 49 0.0 0.9 0.00 0.00 0.00 100 1015.3
20260507180712 56 49 1.7 2.6 0.00 0.00 0.00 100 1015.4
20260507180612 56 68 0.9 2.6 0.00 0.00 0.00 100 1015.4
20260507180512 56 71 1.7 2.6 0.00 0.00 0.00 100 1015.4
20260507180412 56 79 2.6 2.6 0.00 0.00 0.00 100 1015.3
20260507180311 56 59 0.0 1.7 0.00 0.00 0.00 100 1015.3
20260507180211 56 81 2.6 2.6 0.00 0.00 0.00 100 1015.3
20260507180113 56 72 0.9 2.6 0.00 0.00 0.00 100 1015.4
20260507180013 56 79 1.7 2.6 0.00 0.00 0.00 100 1015.4
20260507175913 56 84 0.9 2.6 0.00 0.00 0.00 100 1015.3
20260507175813 56 80 1.7 1.7 0.00 0.00 0.00 100 1015.3
20260507175712 56 79 1.7 2.6 0.00 0.00 0.00 100 1015.4
20260507175612 56 78 1.7 2.6 0.00 0.00 0.00 100 1015.4
20260507175512 56 78 1.7 2.6 0.00 0.00 0.00 100 1015.4
20260507175412 56 72 0.9 2.6 0.00 0.00 0.00 100 1015.3
20260507175312 56 72 2.6 2.6 0.00 0.00 0.00 100 1015.4
20260507175212 56 83 1.7 3.5 0.00 0.00 0.00 100 1015.4
20260507175112 56 90 3.5 3.5 0.00 0.00 0.00 100 1015.3
20260507175012 56 114 1.7 2.6 0.00 0.00 0.00 100 1015.4
20260507174911 56 82 0.0 2.6 0.00 0.00 0.00 100 1015.4
20260507174813 56 78 1.7 2.6 0.00 0.00 0.00 100 1015.4
20260507174713 56 65 2.6 2.6 0.00 0.00 0.00 100 1015.4
20260507174613 56 65 1.7 2.6 0.00 0.00 0.00 100 1015.4
20260507174513 56 70 0.9 2.6 0.00 0.00 0.00 100 1015.4
20260507174413 56 82 2.6 2.6 0.00 0.00 0.00 100 1015.3
20260507174313 56 74 2.6 2.6 0.00 0.00 0.00 100 1015.3
20260507174213 56 74 1.7 4.3 0.00 0.00 0.00 100 1015.3
20260507174112 56 55 2.6 4.3 0.00 0.00 0.00 100 1015.3
20260507174012 56 68 2.6 2.6 0.00 0.00 0.00 100 1015.3
20260507173912 56 63 0.0 1.7 0.00 0.00 0.00 100 1015.3
20260507173812 56 86 1.7 1.7 0.00 0.00 0.00 100 1015.3
20260507173712 56 89 1.7 3.5 0.00 0.00 0.00 100 1015.3
20260507173611 56 35 2.6 3.5 0.00 0.00 0.00 100 1015.3
20260507173511 56 82 0.9 3.5 0.00 0.00 0.00 100 1015.3
20260507173413 56 59 2.6 2.6 0.00 0.00 0.00 100 1015.3
20260507173313 56 75 0.9 1.7 0.00 0.00 0.00 100 1015.3
20260507173213 56 75 1.7 3.5 0.00 0.00 0.00 100 1015.3
20260507173113 56 70 1.7 3.5 0.00 0.00 0.00 100 1015.3
20260507173012 56 76 2.6 3.5 0.00 0.00 0.00 100 1015.3
20260507172912 56 80 2.6 3.5 0.00 0.00 0.00 100 1015.4
20260507172812 56 70 2.6 3.5 0.00 0.00 0.00 100 1015.4
20260507172712 56 71 2.6 2.6 0.00 0.00 0.00 100 1015.4
20260507172612 56 5 0.9 2.6 0.00 0.00 0.00 100 1015.4
20260507172513 56 41 1.7 2.6 0.00 0.00 0.00 100 1015.4
20260507172413 56 49 0.9 2.6 0.00 0.00 0.00 100 1015.4
20260507172313 56 77 1.7 1.7 0.00 0.00 0.00 100 1015.4
20260507172213 56 67 1.7 2.6 0.00 0.00 0.00 100 1015.4
20260507172113 56 32 0.9 2.6 0.00 0.00 0.00 100 1015.4
20260507172013 56 40 1.7 1.7 0.00 0.00 0.00 100 1015.4
20260507171913 56 43 0.0 0.9 0.00 0.00 0.00 100 1015.4
20260507171813 56 43 0.0 0.9 0.00 0.00 0.00 100 1015.4
20260507171712 56 43 1.7 2.6 0.00 0.00 0.00 100 1015.4
20260507171612 56 43 0.9 2.6 0.00 0.00 0.00 100 1015.4
20260507171512 56 49 1.7 2.6 0.00 0.00 0.00 100 1015.4
20260507171412 56 29 1.7 2.6 0.00 0.00 0.00 100 1015.4
20260507171312 56 39 1.7 2.6 0.00 0.00 0.00 100 1015.4
20260507171212 56 27 1.7 2.6 0.00 0.00 0.00 100 1015.4
20260507171112 56 44 0.9 2.6 0.00 0.00 0.00 100 1015.5
20260507171012 56 44 0.9 2.6 0.00 0.00 0.00 100 1015.5
20260507170913 56 55 2.6 2.6 0.00 0.00 0.00 100 1015.4
20260507170813 56 48 0.9 0.9 0.00 0.00 0.00 100 1015.5
20260507170713 56 46 0.0 1.7 0.00 0.00 0.00 100 1015.5
20260507170612 56 46 0.0 1.7 0.00 0.00 0.00 100 1015.5
20260507170512 56 46 0.0 1.7 0.00 0.00 0.00 100 1015.4
20260507170412 56 46 0.0 1.7 0.00 0.00 0.00 100 1015.4
20260507170312 56 47 0.9 1.7 0.00 0.00 0.00 100 1015.4
20260507170212 56 360 0.9 2.6 0.00 0.00 0.00 100 1015.4
20260507170112 56 38 0.0 2.6 0.00 0.00 0.00 100 1015.4
20260507170012 56 37 0.0 2.6 0.00 0.00 0.00 100 1015.4
20260507165912 56 40 0.0 2.6 0.00 0.00 0.00 100 1015.4
20260507165811 56 40 0.9 2.6 0.00 0.00 0.00 100 1015.4
20260507165713 56 24 1.7 1.7 0.00 0.00 0.00 100 1015.3
20260507165613 56 34 0.0 1.7 0.00 0.00 0.00 100 1015.4
20260507165512 56 34 0.0 1.7 0.00 0.00 0.00 100 1015.4
20260507165412 56 34 0.0 1.7 0.00 0.00 0.00 100 1015.4
20260507165312 56 34 0.0 1.7 0.00 0.00 0.00 100 1015.4
20260507165213 56 27 0.9 2.6 0.00 0.00 0.00 100 1015.3
20260507165113 56 33 1.7 2.6 0.00 0.00 0.00 100 1015.3
20260507165013 56 38 1.7 2.6 0.00 0.00 0.00 100 1015.4
20260507164912 56 44 0.9 1.7 0.00 0.00 0.00 100 1015.4
20260507164811 56 44 0.9 1.7 0.00 0.00 0.00 100 1015.4
20260507164711 56 44 0.9 2.6 0.00 0.00 0.00 100 1015.4
20260507164613 56 34 1.7 2.6 0.00 0.00 0.00 100 1015.4
20260507164513 56 33 1.7 2.6 0.00 0.00 0.00 100 1015.5
20260507164413 56 37 1.7 1.7 0.00 0.00 0.00 100 1015.4
20260507164312 56 24 0.0 1.7 0.00 0.00 0.00 100 1015.5
20260507164212 56 24 0.9 2.6 0.00 0.00 0.00 100 1015.5
20260507164111 56 26 1.7 2.6 0.00 0.00 0.00 100 1015.5
20260507164013 56 42 0.9 2.6 0.00 0.00 0.00 100 1015.5
20260507163913 56 42 2.6 2.6 0.00 0.00 0.00 100 1015.5
20260507163813 56 36 0.9 2.6 0.00 0.00 0.00 100 1015.4
20260507163713 56 17 0.9 2.6 0.00 0.00 0.00 100 1015.5
20260507163612 56 12 0.9 2.6 0.00 0.00 0.00 100 1015.5
20260507163512 56 29 1.7 2.6 0.00 0.00 0.00 100 1015.5
20260507163411 56 28 2.6 2.6 0.00 0.00 0.00 100 1015.5
20260507163311 56 51 1.7 2.6 0.00 0.00 0.00 100 1015.5
20260507163213 56 38 1.7 1.7 0.00 0.00 0.00 100 1015.5
20260507163113 56 38 0.9 1.7 0.00 0.00 0.00 100 1015.5
20260507163013 56 38 0.9 1.7 0.00 0.00 0.00 100 1015.5
20260507162913 56 44 0.9 1.7 0.00 0.00 0.00 100 1015.5
20260507162813 56 36 1.7 1.7 0.00 0.00 0.00 100 1015.5
20260507162713 56 37 0.9 2.6 0.00 0.00 0.00 100 1015.5
20260507162612 56 39 0.9 2.6 0.00 0.00 0.00 100 1015.5
20260507162512 56 28 1.7 2.6 0.00 0.00 0.00 100 1015.5
20260507162413 56 15 1.7 2.6 0.00 0.00 0.00 100 1015.5
20260507162313 56 23 1.7 2.6 0.00 0.00 0.00 100 1015.5
20260507162213 56 40 0.9 2.6 0.00 0.00 0.00 100 1015.5
20260507162113 56 40 0.9 2.6 0.00 0.00 0.00 100 1015.5
20260507162013 56 24 2.6 2.6 0.00 0.00 0.00 100 1015.5
20260507161912 56 35 0.9 2.6 0.00 0.00 0.00 100 1015.6
20260507161812 56 27 0.9 2.6 0.00 0.00 0.00 100 1015.5
20260507161712 56 5 2.6 2.6 0.00 0.00 0.00 100 1015.5
20260507161613 56 55 0.0 1.7 0.00 0.00 0.00 100 1015.6
20260507161513 56 46 0.9 1.7 0.00 0.00 0.00 100 1015.5
20260507161413 56 46 0.9 1.7 0.00 0.00 0.00 100 1015.5
20260507161313 56 46 0.9 1.7 0.00 0.00 0.00 100 1015.6
20260507161213 56 51 0.9 1.7 0.00 0.00 0.00 100 1015.6
20260507161112 56 51 0.9 0.9 0.00 0.00 0.00 100 1015.5
20260507161012 56 46 0.0 0.9 0.00 0.00 0.00 100 1015.5
20260507160913 56 46 0.0 0.9 0.00 0.00 0.00 100 1015.5
20260507160813 56 46 0.0 0.0 0.00 0.00 0.00 100 1015.5
20260507160713 56 46 0.0 2.6 0.00 0.00 0.00 100 1015.5
20260507160611 56 46 0.9 2.6 0.00 0.00 0.00 100 1015.5
20260507160511 56 44 2.6 2.6 0.00 0.00 0.00 100 1015.5
20260507160411 56 40 2.6 2.6 0.00 0.00 0.00 100 1015.5
20260507160311 56 34 1.7 2.6 0.00 0.00 0.00 100 1015.5
20260507160213 56 33 2.6 2.6 0.00 0.00 0.00 100 1015.5
20260507160113 56 28 0.9 2.6 0.00 0.00 0.00 100 1015.5
20260507160012 56 27 0.9 2.6 0.00 0.00 0.00 100 1015.5
20260507155911 56 34 2.6 2.6 0.00 0.00 0.00 100 1015.5
20260507155811 56 145 0.0 0.9 0.00 0.00 0.00 100 1015.5
20260507155713 56 145 0.0 1.7 0.00 0.00 0.00 100 1015.5
20260507155613 56 145 0.9 1.7 0.00 0.00 0.00 100 1015.5
20260507155513 56 145 0.0 1.7 0.00 0.00 0.00 100 1015.5
20260507155413 56 145 0.0 1.7 0.00 0.00 0.00 100 1015.5
20260507155313 56 145 0.9 1.7 0.00 0.00 0.00 100 1015.5
20260507155213 56 145 1.7 1.7 0.00 0.00 0.00 100 1015.5
20260507155113 56 145 0.0 0.0 0.00 0.00 0.00 100 1015.5
20260507155013 56 145 0.0 0.0 0.00 0.00 0.00 100 1015.5
20260507154912 56 145 0.0 0.0 0.00 0.00 0.00 100 1015.5
20260507154812 56 145 0.0 0.0 0.00 0.00 0.00 100 1015.5
20260507154713 56 145 0.0 0.9 0.00 0.00 0.00 100 1015.5
20260507154613 56 145 0.0 0.9 0.00 0.00 0.00 100 1015.5
20260507154513 56 145 0.0 0.9 0.00 0.00 0.00 100 1015.5
20260507154412 56 145 0.0 0.9 0.00 0.00 0.00 100 1015.5
20260507154312 56 145 0.9 0.9 0.00 0.00 0.00 100 1015.5
20260507154212 56 145 0.0 0.9 0.00 0.00 0.00 100 1015.5
20260507154112 56 145 0.0 0.9 0.00 0.00 0.00 100 1015.5
20260507154012 56 145 0.0 0.9 0.00 0.00 0.00 100 1015.5
20260507153913 56 145 0.0 0.9 0.00 0.00 0.00 100 1015.5
20260507153813 56 145 0.0 0.9 0.00 0.00 0.00 100 1015.5
20260507153713 56 145 0.9 1.7 0.00 0.00 0.00 100 1015.5
20260507153613 56 145 0.0 1.7 0.00 0.00 0.00 100 1015.4
20260507153512 56 145 0.0 1.7 0.00 0.00 0.00 100 1015.5
20260507153412 56 145 0.9 1.7 0.00 0.00 0.00 100 1015.5
20260507153312 56 145 0.9 0.9 0.00 0.00 0.00 100 1015.5
20260507153213 56 145 0.0 2.6 0.00 0.00 0.00 100 1015.5
20260507153113 56 145 0.0 2.6 0.00 0.00 0.00 100 1015.5
20260507153013 56 145 1.7 2.6 0.00 0.00 0.00 100 1015.5
20260507152913 57 145 1.7 2.6 0.00 0.00 0.00 100 1015.5
20260507152813 57 145 0.9 2.6 0.00 0.00 0.00 100 1015.5
20260507152713 57 96 1.7 1.7 0.00 0.00 0.00 100 1015.5
20260507152613 57 76 0.0 0.9 0.00 0.00 0.00 100 1015.5
20260507152513 57 76 0.0 0.9 0.00 0.00 0.00 100 1015.5
20260507152412 57 76 0.9 0.9 0.00 0.00 0.00 100 1015.5
20260507152312 57 76 0.0 0.9 0.00 0.00 0.00 100 1015.5
20260507152212 57 71 0.0 1.7 0.00 0.00 0.00 100 1015.5
20260507152112 57 5 0.0 0.9 0.00 0.00 0.00 100 1015.5
20260507152012 57 5 0.0 0.9 0.00 0.00 0.00 100 1015.5
20260507151912 57 5 0.0 0.9 0.00 0.00 0.00 100 1015.5
20260507151812 57 5 0.0 0.9 0.00 0.00 0.00 100 1015.5
20260507151712 57 5 0.0 1.7 0.00 0.00 0.00 100 1015.5
20260507151612 57 5 0.0 1.7 0.00 0.00 0.00 100 1015.5
20260507151512 57 5 0.0 1.7 0.00 0.00 0.00 100 1015.5
20260507151411 57 5 0.9 1.7 0.00 0.00 0.00 100 1015.5
20260507151311 57 5 0.0 0.9 0.00 0.00 0.00 100 1015.5
20260507151212 57 5 1.7 2.6 0.00 0.00 0.00 100 1015.5
20260507151112 57 5 0.9 2.6 0.00 0.00 0.00 100 1015.5
20260507151012 57 5 0.9 2.6 0.00 0.00 0.00 100 1015.5
20260507150912 57 5 1.7 2.6 0.00 0.00 0.00 100 1015.5
20260507150813 57 343 1.7 2.6 0.00 0.00 0.00 100 1015.5
20260507150713 57 344 0.9 2.6 0.00 0.00 0.00 100 1015.5
20260507150613 57 344 1.7 2.6 0.00 0.00 0.00 100 1015.5
20260507150512 57 334 0.9 2.6 0.00 0.00 0.00 100 1015.5
20260507150412 57 350 1.7 1.7 0.00 0.00 0.00 100 1015.5
20260507150312 57 350 0.9 1.7 0.00 0.00 0.00 100 1015.5
20260507150213 57 350 0.9 1.7 0.00 0.00 0.00 100 1015.5
20260507150113 57 350 0.9 1.7 0.00 0.00 0.00 100 1015.5
20260507150013 57 350 0.9 1.7 0.00 0.00 0.00 100 1015.5
20260507145913 57 350 0.9 1.7 0.00 0.00 0.00 100 1015.5
20260507145812 57 350 0.0 1.7 0.00 0.00 0.00 100 1015.5
20260507145712 57 355 0.9 1.7 0.00 0.00 0.00 100 1015.5
20260507145612 57 355 1.7 1.7 0.00 0.00 0.00 100 1015.5
20260507145512 57 355 0.9 1.7 0.00 0.00 0.00 100 1015.5
20260507145412 57 355 0.9 0.9 0.00 0.00 0.00 100 1015.5
20260507145311 57 355 0.9 0.9 0.00 0.00 0.00 100 1015.5
20260507145211 57 355 0.0 1.7 0.00 0.00 0.00 100 1015.5
20260507145111 57 355 0.0 1.7 0.00 0.00 0.00 100 1015.5
20260507145013 57 355 0.9 1.7 0.00 0.00 0.00 100 1015.5
20260507144913 57 351 0.9 1.7 0.00 0.00 0.00 100 1015.5
20260507144813 57 351 0.9 1.7 0.00 0.00 0.00 100 1015.5
20260507144713 57 355 0.0 2.6 0.00 0.00 0.00 1 1015.5
20260507144612 57 355 0.9 2.6 0.00 0.00 0.00 1 1015.4
20260507144511 57 348 0.9 2.6 0.00 0.00 0.00 2 1015.4
20260507144411 57 12 0.9 1.7 0.00 0.00 0.00 2 1015.4
20260507144311 57 328 0.9 1.7 0.00 0.00 0.00 3 1015.4
20260507144211 57 330 1.7 2.6 0.00 0.00 0.00 3 1015.5
20260507144111 57 15 0.0 2.6 0.00 0.00 0.00 3 1015.5
20260507144011 57 14 0.9 2.6 0.00 0.00 0.00 4 1015.4
20260507143913 57 360 0.9 2.6 0.00 0.00 0.00 4 1015.5
20260507143813 57 5 2.6 2.6 0.00 0.00 0.00 4 1015.5
20260507143713 57 5 1.7 2.6 0.00 0.00 0.00 4 1015.5
20260507143612 57 355 1.7 2.6 0.00 0.00 0.00 4 1015.5
20260507143512 57 13 1.7 2.6 0.00 0.00 0.00 5 1015.5
20260507143412 57 42 0.9 2.6 0.00 0.00 0.00 5 1015.4
20260507143312 57 42 1.7 2.6 0.00 0.00 0.00 4 1015.5
20260507143213 57 46 2.6 2.6 0.00 0.00 0.00 4 1015.5
20260507143112 57 29 1.7 2.6 0.00 0.00 0.00 4 1015.5
20260507143011 57 32 1.7 2.6 0.00 0.00 0.00 4 1015.5
20260507142911 57 30 2.6 2.6 0.00 0.00 0.00 4 1015.5
20260507142812 57 36 2.6 2.6 0.00 0.00 0.00 4 1015.5
20260507142712 57 28 0.9 2.6 0.00 0.00 0.00 3 1015.5
20260507142612 57 51 0.0 2.6 0.00 0.00 0.00 3 1015.5
20260507142512 57 53 0.9 2.6 0.00 0.00 0.00 3 1015.5
20260507142412 57 66 2.6 2.6 0.00 0.00 0.00 3 1015.5
20260507142312 57 76 0.0 1.7 0.00 0.00 0.00 3 1015.5
20260507142212 57 75 0.9 5.2 0.00 0.00 0.00 4 1015.5
20260507142112 57 40 1.7 5.2 0.00 0.00 0.00 4 1015.5
20260507142012 57 22 3.5 5.2 0.00 0.00 0.00 4 1015.5
20260507141912 57 58 2.6 2.6 0.00 0.00 0.00 4 1015.5
20260507141812 57 34 0.9 1.7 0.00 0.00 0.00 4 1015.5
20260507141712 57 45 2.6 4.3 0.00 0.00 0.00 4 1015.5
20260507141612 57 17 2.6 4.3 0.00 0.00 0.00 5 1015.5
20260507141512 57 43 2.6 4.3 0.00 0.00 0.00 5 1015.6
20260507141412 57 47 2.6 4.3 0.00 0.00 0.00 5 1015.6
20260507141313 57 30 2.6 2.6 0.00 0.00 0.00 6 1015.6
20260507141213 57 360 2.6 3.5 0.00 0.00 0.00 6 1015.6
20260507141113 57 65 1.7 3.5 0.00 0.00 0.00 6 1015.6
20260507141013 57 39 1.7 3.5 0.00 0.00 0.00 7 1015.6
20260507140913 57 69 1.7 2.6 0.00 0.00 0.00 7 1015.6
20260507140813 57 19 1.7 2.6 0.00 0.00 0.00 7 1015.6
20260507140713 57 57 0.9 3.5 0.00 0.00 0.00 7 1015.6
20260507140612 57 82 2.6 3.5 0.00 0.00 0.00 7 1015.6
20260507140513 57 28 1.7 3.5 0.00 0.00 0.00 8 1015.6
20260507140412 57 38 0.9 3.5 0.00 0.00 0.00 8 1015.6
20260507140312 57 61 2.6 3.5 0.00 0.00 0.00 8 1015.6
20260507140212 58 44 0.9 3.5 0.00 0.00 0.00 8 1015.6
20260507140112 58 31 0.0 3.5 0.00 0.00 0.00 8 1015.6
20260507140012 58 33 0.9 3.5 0.00 0.00 0.00 8 1015.6
20260507135912 58 36 2.6 2.6 0.00 0.00 0.00 8 1015.6
20260507135812 58 75 0.9 0.9 0.00 0.00 0.00 9 1015.6
20260507135712 58 92 0.9 4.3 0.00 0.00 0.00 9 1015.6
20260507135612 58 57 1.7 4.3 0.00 0.00 0.00 9 1015.6
20260507135512 58 65 2.6 4.3 0.00 0.00 0.00 9 1015.6
20260507135412 58 78 2.6 4.3 0.00 0.00 0.00 9 1015.6
20260507135312 58 68 2.6 4.3 0.00 0.00 0.00 10 1015.6
20260507135212 58 53 1.7 5.2 0.00 0.00 0.00 10 1015.6
20260507135112 58 37 1.7 5.2 0.00 0.00 0.00 10 1015.6
20260507135012 58 88 3.5 5.2 0.00 0.00 0.00 11 1015.6
20260507134913 58 74 5.2 5.2 0.00 0.00 0.00 11 1015.6
20260507134812 58 78 2.6 4.3 0.00 0.00 0.00 11 1015.5
20260507134712 58 63 1.7 4.3 0.00 0.00 0.00 11 1015.5
20260507134612 58 77 2.6 4.3 0.00 0.00 0.00 11 1015.5
20260507134512 58 34 2.6 4.3 0.00 0.00 0.00 12 1015.5
20260507134412 58 73 1.7 3.5 0.00 0.00 0.00 12 1015.5
20260507134313 58 63 2.6 3.5 0.00 0.00 0.00 13 1015.5
20260507134213 58 67 2.6 7.0 0.00 0.00 0.00 13 1015.5
20260507134113 58 67 2.6 7.0 0.00 0.00 0.00 14 1015.5
20260507134013 58 78 2.6 7.0 0.00 0.00 0.00 14 1015.6
20260507133913 58 100 4.3 7.0 0.00 0.00 0.00 13 1015.6
20260507133813 58 42 3.5 3.5 0.00 0.00 0.00 13 1015.5
20260507133713 58 57 2.6 7.0 0.00 0.00 0.00 13 1015.6
20260507133612 58 73 2.6 7.0 0.00 0.00 0.00 13 1015.6
20260507133512 59 89 3.5 5.2 0.00 0.00 0.00 13 1015.6
20260507133412 59 72 2.6 4.3 0.00 0.00 0.00 14 1015.5
20260507133313 59 140 2.6 2.6 0.00 0.00 0.00 16 1015.5
20260507133213 59 134 1.7 2.6 0.00 0.00 0.00 16 1015.5
20260507133112 59 61 2.6 2.6 0.00 0.00 0.00 17 1015.5
20260507133012 59 57 0.9 2.6 0.00 0.00 0.00 18 1015.5
20260507132912 59 133 0.9 2.6 0.00 0.00 0.00 19 1015.5
20260507132812 59 91 2.6 2.6 0.00 0.00 0.00 20 1015.5
20260507132712 59 150 1.7 5.2 0.00 0.00 0.00 20 1015.5
20260507132612 59 69 1.7 5.2 0.00 0.00 0.00 21 1015.5
20260507132512 59 76 2.6 5.2 0.00 0.00 0.00 22 1015.5
20260507132412 59 91 0.9 5.2 0.00 0.00 0.00 23 1015.5
20260507132312 59 74 1.7 2.6 0.00 0.00 0.00 23 1015.5
20260507132212 59 86 2.6 2.6 0.00 0.00 0.00 23 1015.5
20260507132112 59 117 1.7 2.6 0.00 0.00 0.00 23 1015.5
20260507132012 59 86 1.7 2.6 0.00 0.00 0.00 23 1015.5
20260507131912 59 95 2.6 2.6 0.00 0.00 0.00 23 1015.5
20260507131812 59 127 1.7 2.6 0.00 0.00 0.00 23 1015.5
20260507131713 59 155 0.9 4.3 0.00 0.00 0.00 23 1015.5
20260507131612 59 143 2.6 4.3 0.00 0.00 0.00 23 1015.5
20260507131512 59 94 0.9 4.3 0.00 0.00 0.00 23 1015.5
20260507131412 59 40 2.6 3.5 0.00 0.00 0.00 23 1015.5
20260507131312 59 85 0.0 1.7 0.00 0.00 0.00 22 1015.5
20260507131212 59 71 0.9 5.2 0.00 0.00 0.00 22 1015.5
20260507131112 59 76 0.0 5.2 0.00 0.00 0.00 22 1015.5
20260507131013 59 110 2.6 5.2 0.00 0.00 0.00 23 1015.5
20260507130913 59 52 2.6 2.6 0.00 0.00 0.00 23 1015.5
20260507130813 59 71 0.9 2.6 0.00 0.00 0.00 24 1015.5
20260507130713 59 81 0.9 3.5 0.00 0.00 0.00 24 1015.6
20260507130613 59 46 0.9 3.5 0.00 0.00 0.00 25 1015.5
20260507130512 59 26 0.9 3.5 0.00 0.00 0.00 25 1015.6
20260507130412 59 80 3.5 3.5 0.00 0.00 0.00 27 1015.6
20260507130311 59 36 0.9 2.6 0.00 0.00 0.00 28 1015.6
20260507130211 59 80 2.6 4.3 0.00 0.00 0.00 28 1015.5
20260507130113 59 53 2.6 4.3 0.00 0.00 0.00 29 1015.6
20260507130013 59 37 0.9 4.3 0.00 0.00 0.00 29 1015.5
20260507125913 59 65 1.7 2.6 0.00 0.00 0.00 30 1015.5
20260507125813 59 49 1.7 2.6 0.00 0.00 0.00 31 1015.5
20260507125713 59 36 2.6 5.2 0.00 0.00 0.00 32 1015.5
20260507125613 60 40 1.7 5.2 0.00 0.00 0.00 32 1015.5
20260507125512 60 65 0.9 4.3 0.00 0.00 0.00 33 1015.6
20260507125412 60 73 2.6 4.3 0.00 0.00 0.00 34 1015.6
20260507125312 60 42 0.9 2.6 0.00 0.00 0.00 35 1015.5
20260507125212 60 67 2.6 7.8 0.00 0.00 0.00 36 1015.5
20260507125113 60 35 3.5 7.8 0.00 0.00 0.00 37 1015.5
20260507125013 60 60 3.5 4.3 0.00 0.00 0.00 38 1015.5
20260507124913 60 37 4.3 4.3 0.00 0.00 0.00 39 1015.5
20260507124813 60 47 2.6 3.5 0.00 0.00 0.00 39 1015.5
20260507124713 60 88 2.6 7.0 0.00 0.00 0.00 40 1015.5
20260507124613 60 40 1.7 7.0 0.00 0.00 0.00 41 1015.5
20260507124513 61 70 2.6 7.0 0.00 0.00 0.00 41 1015.5
20260507124411 61 48 4.3 7.0 0.00 0.00 0.00 42 1015.5
20260507124311 61 15 3.5 7.0 0.00 0.00 0.00 42 1015.5
20260507124211 61 72 1.7 6.1 0.00 0.00 0.00 42 1015.5
20260507124112 61 88 3.5 6.1 0.00 0.00 0.00 43 1015.5
20260507124012 62 36 2.6 6.1 0.00 0.00 0.00 43 1015.4
20260507123912 62 57 2.6 6.1 0.00 0.00 0.00 43 1015.4
20260507123812 62 63 2.6 2.6 0.00 0.00 0.00 44 1015.5
20260507123712 62 77 2.6 6.1 0.00 0.00 0.00 44 1015.4
20260507123612 62 80 2.6 6.1 0.00 0.00 0.00 44 1015.5
20260507123512 62 69 2.6 6.1 0.00 0.00 0.00 44 1015.5
20260507123413 62 80 3.5 6.1 0.00 0.00 0.00 44 1015.5
20260507123313 62 89 2.6 6.1 0.00 0.00 0.00 44 1015.5
20260507123213 62 146 0.9 3.5 0.00 0.00 0.00 44 1015.4
20260507123112 62 96 1.7 3.5 0.00 0.00 0.00 44 1015.5
20260507123012 62 138 1.7 2.6 0.00 0.00 0.00 44 1015.4
20260507122912 62 42 1.7 2.6 0.00 0.00 0.00 44 1015.5
20260507122812 63 82 2.6 2.6 0.00 0.00 0.00 44 1015.5
20260507122712 63 46 3.5 3.5 0.00 0.00 0.00 44 1015.4
20260507122612 63 100 0.9 3.5 0.00 0.00 0.00 44 1015.4
20260507122512 63 123 0.9 3.5 0.00 0.00 0.00 44 1015.5
20260507122413 63 139 2.6 3.5 0.00 0.00 0.00 44 1015.4
20260507122313 63 148 1.7 1.7 0.00 0.00 0.00 44 1015.4
20260507122213 63 123 0.9 7.8 0.00 0.00 0.00 44 1015.4
20260507122113 63 161 1.7 7.8 0.00 0.00 0.00 44 1015.4
20260507122012 63 93 3.5 7.8 0.00 0.00 0.00 44 1015.4
20260507121912 63 143 1.7 7.8 0.00 0.00 0.00 44 1015.4
20260507121811 63 61 2.6 4.3 0.00 0.00 0.00 44 1015.5
20260507121711 63 55 3.5 5.2 0.00 0.00 0.00 44 1015.4
20260507121613 63 82 0.9 5.2 0.00 0.00 0.00 44 1015.5
20260507121513 63 105 1.7 5.2 0.00 0.00 0.00 43 1015.5
20260507121413 63 91 3.5 3.5 0.00 0.00 0.00 43 1015.4
20260507121312 63 123 0.0 1.7 0.00 0.00 0.00 43 1015.5
20260507121212 63 122 0.9 6.1 0.00 0.00 0.00 43 1015.4
20260507121112 64 86 0.0 6.1 0.00 0.00 0.00 42 1015.5
20260507121012 64 64 2.6 6.1 0.00 0.00 0.00 42 1015.4
20260507120912 64 71 2.6 6.1 0.00 0.00 0.00 42 1015.4
20260507120812 64 50 2.6 6.1 0.00 0.00 0.00 42 1015.4
20260507120712 64 32 0.9 3.5 0.00 0.00 0.00 42 1015.4
20260507120611 63 84 1.7 3.5 0.00 0.00 0.00 42 1015.4
20260507120511 63 215 0.9 3.5 0.00 0.00 0.00 42 1015.4
20260507120411 63 215 1.7 3.5 0.00 0.00 0.00 42 1015.4
20260507120311 63 188 3.5 3.5 0.00 0.00 0.00 42 1015.4
20260507120211 63 192 0.9 5.2 0.00 0.00 0.00 42 1015.4
20260507120113 63 253 0.9 5.2 0.00 0.00 0.00 42 1015.5
20260507120013 63 323 0.0 5.2 0.00 0.00 0.00 41 1015.4
20260507115913 63 313 2.6 5.2 0.00 0.00 0.00 41 1015.5
20260507115812 63 320 2.6 5.2 0.00 0.00 0.00 41 1015.5
20260507115712 63 19 2.6 5.2 0.00 0.00 0.00 41 1015.5
20260507115613 63 34 1.7 5.2 0.00 0.00 0.00 41 1015.4
20260507115512 63 77 0.9 5.2 0.00 0.00 0.00 41 1015.4
20260507115412 63 42 0.9 5.2 0.00 0.00 0.00 41 1015.4
20260507115312 63 65 0.0 5.2 0.00 0.00 0.00 41 1015.5
20260507115211 63 25 3.5 3.5 0.00 0.00 0.00 41 1015.4
20260507115111 63 96 0.0 3.5 0.00 0.00 0.00 41 1015.4
20260507115013 63 49 2.6 2.6 0.00 0.00 0.00 41 1015.4
20260507114912 63 246 0.0 1.7 0.00 0.00 0.00 41 1015.4
20260507114812 63 331 1.7 1.7 0.00 0.00 0.00 41 1015.4
20260507114712 62 71 1.7 2.6 0.00 0.00 0.00 40 1015.4
20260507114612 62 92 0.9 2.6 0.00 0.00 0.00 40 1015.4
20260507114512 62 90 0.0 2.6 0.00 0.00 0.00 41 1015.5
20260507114412 62 88 0.9 1.7 0.00 0.00 0.00 41 1015.4
20260507114313 62 138 0.9 1.7 0.00 0.00 0.00 41 1015.4
20260507114212 62 98 0.0 2.6 0.00 0.00 0.00 41 1015.4
20260507114112 62 68 1.7 2.6 0.00 0.00 0.00 41 1015.4
20260507114012 62 74 1.7 2.6 0.00 0.00 0.00 41 1015.5
20260507113912 62 32 1.7 1.7 0.00 0.00 0.00 41 1015.4
20260507113812 62 150 0.9 1.7 0.00 0.00 0.00 41 1015.5
20260507113712 62 144 2.6 2.6 0.00 0.00 0.00 41 1015.5
20260507113612 62 159 0.9 2.6 0.00 0.00 0.00 40 1015.5
20260507113512 62 206 1.7 2.6 0.00 0.00 0.00 40 1015.5
20260507113412 62 100 0.9 2.6 0.00 0.00 0.00 41 1015.5
20260507113312 62 153 1.7 2.6 0.00 0.00 0.00 40 1015.5
20260507113212 61 146 2.6 3.5 0.00 0.00 0.00 40 1015.5
20260507113113 61 184 2.6 3.5 0.00 0.00 0.00 41 1015.5
20260507113012 61 51 0.0 3.5 0.00 0.00 0.00 41 1015.5
20260507112911 61 78 0.0 3.5 0.00 0.00 0.00 41 1015.6
20260507112811 61 111 0.9 3.5 0.00 0.00 0.00 41 1015.6
20260507112711 61 103 0.9 2.6 0.00 0.00 0.00 41 1015.6
20260507112611 61 34 0.9 2.6 0.00 0.00 0.00 41 1015.6
20260507112512 61 96 1.7 2.6 0.00 0.00 0.00 41 1015.6
20260507112412 61 152 1.7 1.7 0.00 0.00 0.00 41 1015.6
20260507112312 61 110 0.9 1.7 0.00 0.00 0.00 42 1015.6
20260507112213 61 111 2.6 4.3 0.00 0.00 0.00 42 1015.6
20260507112113 61 151 1.7 3.5 0.00 0.00 0.00 42 1015.6
20260507112013 61 123 2.6 2.6 0.00 0.00 0.00 42 1015.6
20260507111913 61 161 2.6 2.6 0.00 0.00 0.00 41 1015.6
20260507111813 61 112 2.6 2.6 0.00 0.00 0.00 41 1015.6
20260507111713 61 180 0.9 2.6 0.00 0.00 0.00 41 1015.6
20260507111613 61 175 2.6 2.6 0.00 0.00 0.00 41 1015.6
20260507111513 61 191 2.6 2.6 0.00 0.00 0.00 41 1015.7
20260507111413 61 144 1.7 2.6 0.00 0.00 0.00 41 1015.6
20260507111313 61 122 2.6 2.6 0.00 0.00 0.00 41 1015.6
20260507111213 61 126 0.9 3.5 0.00 0.00 0.00 41 1015.6
20260507111112 61 120 2.6 3.5 0.00 0.00 0.00 41 1015.7
20260507111012 61 163 2.6 3.5 0.00 0.00 0.00 41 1015.7
20260507110912 61 82 1.7 3.5 0.00 0.00 0.00 41 1015.6
20260507110811 61 70 0.9 1.7 0.00 0.00 0.00 41 1015.7
20260507110711 60 134 1.7 2.6 0.00 0.00 0.00 41 1015.7
20260507110611 60 171 1.7 2.6 0.00 0.00 0.00 40 1015.8
20260507110511 60 153 2.6 2.6 0.00 0.00 0.00 40 1015.8
20260507110411 60 161 1.7 2.6 0.00 0.00 0.00 40 1015.7
20260507110311 60 186 2.6 2.6 0.00 0.00 0.00 40 1015.8
20260507110213 60 46 2.6 2.6 0.00 0.00 0.00 40 1015.8
20260507110113 60 32 1.7 2.6 0.00 0.00 0.00 40 1015.8
20260507110013 60 68 1.7 2.6 0.00 0.00 0.00 40 1015.8
20260507105913 60 34 0.9 1.7 0.00 0.00 0.00 40 1015.8
20260507105813 60 355 1.7 1.7 0.00 0.00 0.00 40 1015.8
20260507105713 60 44 2.6 2.6 0.00 0.00 0.00 40 1015.8
20260507105613 60 41 2.6 2.6 0.00 0.00 0.00 39 1015.8
20260507105512 60 96 1.7 2.6 0.00 0.00 0.00 40 1015.8
20260507105412 60 40 2.6 2.6 0.00 0.00 0.00 40 1015.8
20260507105311 60 84 2.6 2.6 0.00 0.00 0.00 40 1015.8
20260507105211 60 84 2.6 3.5 0.00 0.00 0.00 40 1015.8
20260507105111 60 70 1.7 3.5 0.00 0.00 0.00 39 1015.9
20260507105013 60 104 1.7 3.5 0.00 0.00 0.00 39 1015.8
20260507104912 60 28 1.7 3.5 0.00 0.00 0.00 39 1015.9
20260507104812 60 65 1.7 3.5 0.00 0.00 0.00 39 1015.9
20260507104712 60 88 2.6 3.5 0.00 0.00 0.00 39 1015.9
20260507104612 60 20 0.9 2.6 0.00 0.00 0.00 39 1015.9
20260507104514 60 71 1.7 2.6 0.00 0.00 0.00 38 1015.9
20260507104413 60 62 0.0 2.6 0.00 0.00 0.00 38 1015.9
20260507104313 60 62 0.9 2.6 0.00 0.00 0.00 38 1015.9
20260507104213 60 83 0.9 5.2 0.00 0.00 0.00 38 1015.9
20260507104111 60 61 2.6 5.2 0.00 0.00 0.00 37 1015.9
20260507104012 60 86 2.6 3.5 0.00 0.00 0.00 37 1015.9
20260507103911 60 78 1.7 2.6 0.00 0.00 0.00 36 1015.9
20260507103811 60 179 1.7 2.6 0.00 0.00 0.00 36 1015.9
20260507103712 60 120 2.6 3.5 0.00 0.00 0.00 36 1015.9
20260507103612 60 281 0.9 3.5 0.00 0.00 0.00 36 1015.9
20260507103512 60 343 1.7 3.5 0.00 0.00 0.00 36 1015.9
20260507103412 60 346 2.6 3.5 0.00 0.00 0.00 36 1016.0
20260507103312 60 50 3.5 3.5 0.00 0.00 0.00 36 1016.0
20260507103212 60 342 2.6 2.6 0.00 0.00 0.00 35 1016.0
20260507103112 60 5 2.6 2.6 0.00 0.00 0.00 35 1016.0
20260507103012 60 42 1.7 2.6 0.00 0.00 0.00 35 1016.0
20260507102912 60 150 2.6 2.6 0.00 0.00 0.00 35 1015.9
20260507102812 60 15 1.7 2.6 0.00 0.00 0.00 35 1016.0
20260507102713 60 326 2.6 3.5 0.00 0.00 0.00 35 1016.0
20260507102612 60 323 2.6 3.5 0.00 0.00 0.00 36 1016.0
20260507102512 60 350 3.5 3.5 0.00 0.00 0.00 35 1016.0
20260507102412 60 334 1.7 1.7 0.00 0.00 0.00 35 1016.0
20260507102312 60 54 0.9 0.9 0.00 0.00 0.00 35 1016.0
20260507102212 60 44 0.9 2.6 0.00 0.00 0.00 35 1016.0
20260507102112 60 82 0.9 2.6 0.00 0.00 0.00 34 1016.0
20260507102012 60 336 0.9 2.6 0.00 0.00 0.00 34 1016.1
20260507101912 60 95 0.9 2.6 0.00 0.00 0.00 34 1016.1
20260507101812 60 180 2.6 2.6 0.00 0.00 0.00 33 1016.1
20260507101713 60 177 0.9 3.5 0.00 0.00 0.00 33 1016.1
20260507101613 60 92 0.0 3.5 0.00 0.00 0.00 33 1016.1
20260507101513 60 96 2.6 3.5 0.00 0.00 0.00 32 1016.1
20260507101413 60 63 3.5 3.5 0.00 0.00 0.00 32 1016.1
20260507101313 60 109 0.9 2.6 0.00 0.00 0.00 32 1016.1
20260507101212 60 196 0.9 4.3 0.00 0.00 0.00 32 1016.1
20260507101112 60 196 0.0 4.3 0.00 0.00 0.00 32 1016.1
20260507101011 60 150 3.5 4.3 0.00 0.00 0.00 32 1016.1
20260507100911 60 48 0.9 1.7 0.00 0.00 0.00 32 1016.1
20260507100811 60 74 1.7 1.7 0.00 0.00 0.00 32 1016.0
20260507100713 60 56 1.7 4.3 0.00 0.00 0.00 32 1016.0
20260507100613 60 41 2.6 4.3 0.00 0.00 0.00 32 1016.0
20260507100513 60 11 2.6 4.3 0.00 0.00 0.00 31 1016.0
20260507100412 60 14 2.6 4.3 0.00 0.00 0.00 30 1016.0
20260507100312 60 43 2.6 2.6 0.00 0.00 0.00 27 1016.0
20260507100212 60 62 2.6 3.5 0.00 0.00 0.00 26 1016.0
20260507100111 60 37 2.6 2.6 0.00 0.00 0.00 26 1016.0
20260507100011 60 87 0.9 2.6 0.00 0.00 0.00 25 1016.0
20260507095911 60 104 0.0 2.6 0.00 0.00 0.00 25 1015.9
20260507095813 59 121 0.9 2.6 0.00 0.00 0.00 24 1016.0
20260507095713 59 161 0.9 2.6 0.00 0.00 0.00 24 1015.9
20260507095613 59 80 0.9 2.6 0.00 0.00 0.00 26 1016.0
20260507095513 59 48 2.6 2.6 0.00 0.00 0.00 25 1016.0
20260507095413 59 109 0.9 2.6 0.00 0.00 0.00 25 1015.9
20260507095312 59 123 0.9 2.6 0.00 0.00 0.00 26 1016.0
20260507095212 59 56 1.7 6.1 0.00 0.00 0.00 25 1016.0
20260507095112 59 78 0.0 6.1 0.00 0.00 0.00 25 1016.0
20260507095012 59 61 1.7 6.1 0.00 0.00 0.00 25 1016.0
20260507094912 59 67 2.6 6.1 0.00 0.00 0.00 25 1016.0
20260507094812 59 70 2.6 6.1 0.00 0.00 0.00 25 1016.0
20260507094713 59 32 1.7 3.5 0.00 0.00 0.00 26 1016.0
20260507094613 59 9 3.5 3.5 0.00 0.00 0.00 25 1016.0
20260507094513 59 72 2.6 2.6 0.00 0.00 0.00 27 1016.0
20260507094413 59 37 0.9 2.6 0.00 0.00 0.00 27 1015.9
20260507094313 59 345 1.7 2.6 0.00 0.00 0.00 27 1016.0
20260507094212 59 248 0.0 2.6 0.00 0.00 0.00 26 1015.9
20260507094112 59 347 1.7 2.6 0.00 0.00 0.00 26 1015.9
20260507094012 59 63 0.9 2.6 0.00 0.00 0.00 25 1015.9
20260507093912 59 73 0.9 2.6 0.00 0.00 0.00 22 1015.9
20260507093812 59 50 1.7 2.6 0.00 0.00 0.00 21 1015.9
20260507093712 59 41 0.0 4.3 0.00 0.00 0.00 20 1015.9
20260507093612 59 32 2.6 4.3 0.00 0.00 0.00 18 1015.9
20260507093512 59 82 4.3 4.3 0.00 0.00 0.00 16 1015.9
20260507093411 59 62 0.0 1.7 0.00 0.00 0.00 15 1016.0
20260507093311 58 157 1.7 1.7 0.00 0.00 0.00 13 1015.9
20260507093213 58 57 1.7 5.2 0.00 0.00 0.00 14 1015.9
20260507093113 58 129 0.9 5.2 0.00 0.00 0.00 14 1015.9
20260507093013 58 77 2.6 5.2 0.00 0.00 0.00 13 1015.9
20260507092913 58 62 5.2 5.2 0.00 0.00 0.00 12 1015.9
20260507092813 58 40 1.7 2.6 0.00 0.00 0.00 12 1015.9
20260507092713 58 28 0.0 5.2 0.00 0.00 0.00 10 1015.9
20260507092611 58 71 2.6 5.2 0.00 0.00 0.00 10 1015.9
20260507092511 58 75 1.7 3.5 0.00 0.00 0.00 10 1015.9
20260507092411 58 42 2.6 3.5 0.00 0.00 0.00 10 1015.9
20260507092311 58 94 3.5 3.5 0.00 0.00 0.00 10 1015.9
20260507092211 58 91 3.5 3.5 0.00 0.00 0.00 12 1015.9
20260507092112 58 51 0.9 2.6 0.00 0.00 0.00 14 1015.9
20260507092012 58 338 0.9 2.6 0.00 0.00 0.00 14 1015.9
20260507091912 58 355 1.7 2.6 0.00 0.00 0.00 11 1016.0
20260507091812 58 10 2.6 2.6 0.00 0.00 0.00 7 1015.9
20260507091712 58 51 0.0 2.6 0.00 0.00 0.00 5 1015.9
20260507091612 58 13 1.7 2.6 0.00 0.00 0.00 4 1015.9
20260507091512 58 5 0.9 2.6 0.00 0.00 0.00 2 1016.0
20260507091412 58 5 1.7 2.6 0.00 0.00 0.00 100 1016.0
20260507091314 58 132 0.9 0.9 0.00 0.00 0.00 1 1016.0
20260507091213 58 81 0.0 2.6 0.00 0.00 0.00 1 1016.0
20260507091112 58 33 0.9 2.6 0.00 0.00 0.00 2 1015.9
20260507091013 58 16 1.7 2.6 0.00 0.00 0.00 100 1016.0
20260507090912 58 39 2.6 2.6 0.00 0.00 0.00 100 1015.9
20260507090812 58 78 0.9 0.9 0.00 0.00 0.00 100 1016.0
20260507090712 58 96 0.9 4.3 0.00 0.00 0.00 100 1015.9
20260507090613 58 44 2.6 4.3 0.00 0.00 0.00 100 1015.9
20260507090513 58 100 3.5 4.3 0.00 0.00 0.00 100 1015.9
20260507090413 57 138 0.0 2.6 0.00 0.00 0.00 100 1015.9
20260507090313 57 138 1.7 2.6 0.00 0.00 0.00 100 1015.9
20260507090213 57 109 0.0 3.5 0.00 0.00 0.00 100 1015.9
20260507090111 57 107 1.7 3.5 0.00 0.00 0.00 100 1015.9
20260507090012 57 61 3.5 3.5 0.00 0.00 0.00 100 1015.9
20260507085912 57 101 2.6 2.6 0.00 0.00 0.00 100 1015.9
20260507085812 57 73 2.6 2.6 0.00 0.00 0.00 100 1015.9
20260507085712 57 150 0.9 1.7 0.00 0.00 0.00 100 1015.9
20260507085612 57 92 0.0 1.7 0.00 0.00 0.00 100 1015.9
20260507085512 57 82 0.9 1.7 0.00 0.00 0.00 100 1015.8
20260507085412 57 80 0.0 0.9 0.00 0.00 0.00 100 1015.8
20260507085312 57 80 0.0 0.9 0.00 0.00 0.00 100 1015.8
20260507085212 57 80 0.0 3.5 0.00 0.00 0.00 100 1015.8
20260507085113 57 80 0.0 3.5 0.00 0.00 0.00 100 1015.9
20260507085013 57 81 0.9 3.5 0.00 0.00 0.00 100 1015.8
20260507084913 57 28 2.6 3.5 0.00 0.00 0.00 100 1015.9
20260507084813 57 17 2.6 2.6 0.00 0.00 0.00 100 1015.8
20260507084713 57 33 2.6 3.5 0.00 0.00 0.00 100 1015.9
20260507084612 56 91 1.7 3.5 0.00 0.00 0.00 100 1015.8
20260507084512 56 54 0.0 3.5 0.00 0.00 0.00 100 1015.8
20260507084412 56 54 0.9 3.5 0.00 0.00 0.00 100 1015.8
20260507084312 56 78 1.7 2.6 0.00 0.00 0.00 100 1015.9
20260507084211 56 85 3.5 5.2 0.00 0.00 0.00 100 1015.8
20260507084113 56 127 0.9 3.5 0.00 0.00 0.00 100 1015.8
20260507084013 56 82 2.6 3.5 0.00 0.00 0.00 100 1015.8
20260507083913 56 28 1.7 3.5 0.00 0.00 0.00 100 1015.8
20260507083813 56 355 1.7 3.5 0.00 0.00 0.00 100 1015.8
20260507083713 56 36 2.6 4.3 0.00 0.00 0.00 100 1015.8
20260507083613 56 5 1.7 4.3 0.00 0.00 0.00 100 1015.8
20260507083513 56 111 2.6 4.3 0.00 0.00 0.00 100 1015.9
20260507083413 56 80 1.7 2.6 0.00 0.00 0.00 100 1015.9
20260507083313 56 55 2.6 2.6 0.00 0.00 0.00 100 1015.9
20260507083212 56 40 1.7 5.2 0.00 0.00 0.00 100 1015.8
20260507083112 56 73 1.7 3.5 0.00 0.00 0.00 100 1015.8
20260507083012 56 20 2.6 3.5 0.00 0.00 0.00 100 1015.9
20260507082912 56 46 0.9 2.6 0.00 0.00 0.00 100 1015.9
20260507082812 56 32 1.7 2.6 0.00 0.00 0.00 100 1015.9
20260507082712 56 52 2.6 3.5 0.00 0.00 0.00 100 1015.9
20260507082612 56 52 2.6 2.6 0.00 0.00 0.00 100 1015.8
20260507082512 56 55 1.7 2.6 0.00 0.00 0.00 100 1015.9
20260507082412 56 11 2.6 2.6 0.00 0.00 0.00 100 1015.9
20260507082312 56 65 1.7 1.7 0.00 0.00 0.00 100 1015.9
20260507082212 56 61 2.6 3.5 0.00 0.00 0.00 100 1015.8
20260507082112 56 150 0.0 2.6 0.00 0.00 0.00 100 1015.8
20260507082012 56 150 0.9 2.6 0.00 0.00 0.00 100 1015.8
20260507081911 56 125 1.7 2.6 0.00 0.00 0.00 100 1015.8
20260507081812 56 169 0.9 1.7 0.00 0.00 0.00 100 1015.8
20260507081712 56 49 0.0 3.5 0.00 0.00 0.00 100 1015.8
20260507081612 55 43 0.9 3.5 0.00 0.00 0.00 100 1015.8
20260507081511 55 32 0.9 3.5 0.00 0.00 0.00 100 1015.8
20260507081411 55 11 1.7 3.5 0.00 0.00 0.00 100 1015.8
20260507081312 55 19 0.9 2.6 0.00 0.00 0.00 100 1015.8
20260507081212 55 80 0.9 3.5 0.00 0.00 0.00 100 1015.8
20260507081112 55 68 1.7 3.5 0.00 0.00 0.00 100 1015.8
20260507081012 55 26 2.6 3.5 0.00 0.00 0.00 100 1015.8
20260507080912 55 35 1.7 3.5 0.00 0.00 0.00 100 1015.8
20260507080812 55 31 2.6 2.6 0.00 0.00 0.00 100 1015.8
20260507080712 55 22 2.6 2.6 0.00 0.00 0.00 100 1015.8
20260507080612 55 18 1.7 2.6 0.00 0.00 0.00 100 1015.8
20260507080512 55 33 2.6 2.6 0.00 0.00 0.00 100 1015.8
20260507080412 55 44 0.9 2.6 0.00 0.00 0.00 100 1015.8
20260507080313 55 355 1.7 2.6 0.00 0.00 0.00 100 1015.8
20260507080213 55 42 1.7 2.6 0.00 0.00 0.00 100 1015.8
20260507080112 55 64 0.9 2.6 0.00 0.00 0.00 100 1015.8
20260507080012 55 56 2.6 2.6 0.00 0.00 0.00 100 1015.8
20260507075912 55 80 1.7 2.6 0.00 0.00 0.00 100 1015.8
20260507075812 55 86 1.7 1.7 0.00 0.00 0.00 100 1015.8
20260507075712 55 96 0.0 2.6 0.00 0.00 0.00 100 1015.8
20260507075612 55 96 0.9 2.6 0.00 0.00 0.00 100 1015.8
20260507075512 55 69 0.0 2.6 0.00 0.00 0.00 100 1015.8
20260507075412 55 72 2.6 2.6 0.00 0.00 0.00 100 1015.8
20260507075312 55 90 0.9 1.7 0.00 0.00 0.00 100 1015.8
20260507075212 55 78 0.9 2.6 0.00 0.00 0.00 100 1015.8
20260507075112 55 77 0.9 2.6 0.00 0.00 0.00 100 1015.8
20260507075012 55 77 1.7 1.7 0.00 0.00 0.00 100 1015.8
20260507074912 55 48 0.9 1.7 0.00 0.00 0.00 100 1015.8
20260507074812 55 48 0.9 1.7 0.00 0.00 0.00 100 1015.8
20260507074711 55 48 0.9 2.6 0.00 0.00 0.00 100 1015.8
20260507074613 55 48 0.9 2.6 0.00 0.00 0.00 100 1015.8
20260507074513 55 53 1.7 2.6 0.00 0.00 0.00 100 1015.7
20260507074413 54 50 1.7 2.6 0.00 0.00 0.00 100 1015.8
20260507074313 54 71 0.0 2.6 0.00 0.00 0.00 100 1015.7
20260507074213 54 75 1.7 2.6 0.00 0.00 0.00 100 1015.7
20260507074113 54 101 0.0 2.6 0.00 0.00 0.00 100 1015.7
20260507074013 54 87 0.0 2.6 0.00 0.00 0.00 100 1015.7
20260507073912 54 71 0.0 0.9 0.00 0.00 0.00 100 1015.7
20260507073812 54 71 0.0 0.9 0.00 0.00 0.00 100 1015.7
20260507073712 54 71 0.9 2.6 0.00 0.00 0.00 100 1015.7
20260507073612 54 71 0.0 2.6 0.00 0.00 0.00 100 1015.8
20260507073512 54 71 0.9 2.6 0.00 0.00 0.00 100 1015.8
20260507073412 54 77 0.9 2.6 0.00 0.00 0.00 100 1015.7
20260507073312 54 79 0.9 1.7 0.00 0.00 0.00 100 1015.8
20260507073212 54 84 0.9 3.5 0.00 0.00 0.00 100 1015.8
20260507073112 54 88 0.9 3.5 0.00 0.00 0.00 100 1015.8
20260507073013 54 88 1.7 3.5 0.00 0.00 0.00 100 1015.7
20260507072913 53 73 0.0 3.5 0.00 0.00 0.00 100 1015.8
20260507072813 53 88 0.9 3.5 0.00 0.00 0.00 100 1015.7
20260507072713 53 11 0.0 2.6 0.00 0.00 0.00 100 1015.8
20260507072612 53 5 0.0 2.6 0.00 0.00 0.00 100 1015.8
20260507072512 53 5 0.0 2.6 0.00 0.00 0.00 100 1015.7
20260507072412 53 5 0.0 2.6 0.00 0.00 0.00 100 1015.7
20260507072311 53 30 1.7 1.7 0.00 0.00 0.00 100 1015.7
20260507072213 53 71 0.0 1.7 0.00 0.00 0.00 100 1015.7
20260507072113 53 38 0.0 0.9 0.00 0.00 0.00 100 1015.7
20260507072013 53 38 0.0 0.9 0.00 0.00 0.00 100 1015.7
20260507071913 53 38 0.0 0.9 0.00 0.00 0.00 100 1015.7
20260507071813 53 37 0.9 0.9 0.00 0.00 0.00 100 1015.6
20260507071712 53 23 0.0 2.6 0.00 0.00 0.00 100 1015.6
20260507071613 53 23 0.9 2.6 0.00 0.00 0.00 100 1015.6
20260507071512 53 23 0.9 2.6 0.00 0.00 0.00 100 1015.6
20260507071412 52 25 0.9 2.6 0.00 0.00 0.00 100 1015.6
20260507071312 52 37 0.9 2.6 0.00 0.00 0.00 100 1015.6
20260507071213 52 5 0.9 1.7 0.00 0.00 0.00 100 1015.6
20260507071113 52 17 0.0 0.9 0.00 0.00 0.00 100 1015.6
20260507071013 52 17 0.0 0.9 0.00 0.00 0.00 100 1015.6
20260507070913 52 19 0.0 0.9 0.00 0.00 0.00 100 1015.6
20260507070813 52 24 0.0 0.9 0.00 0.00 0.00 100 1015.6
20260507070713 52 32 0.0 2.6 0.00 0.00 0.00 100 1015.6
20260507070612 52 24 0.9 2.6 0.00 0.00 0.00 100 1015.6
20260507070513 52 355 1.7 2.6 0.00 0.00 0.00 100 1015.6
20260507070412 52 342 0.9 2.6 0.00 0.00 0.00 100 1015.6
20260507070312 52 329 1.7 2.6 0.00 0.00 0.00 100 1015.6
20260507070212 52 332 1.7 1.7 0.00 0.00 0.00 100 1015.6
20260507070112 52 321 0.9 0.9 0.00 0.00 0.00 100 1015.6
20260507070013 52 321 0.0 0.9 0.00 0.00 0.00 100 1015.6
20260507065913 52 321 0.0 0.9 0.00 0.00 0.00 100 1015.6
20260507065813 52 321 0.0 0.9 0.00 0.00 0.00 100 1015.6
20260507065713 52 321 0.0 1.7 0.00 0.00 0.00 100 1015.6
20260507065612 52 332 0.0 1.7 0.00 0.00 0.00 100 1015.6
20260507065511 52 332 0.9 1.7 0.00 0.00 0.00 100 1015.6
20260507065412 51 332 0.9 1.7 0.00 0.00 0.00 100 1015.6
20260507065311 51 332 0.9 1.7 0.00 0.00 0.00 100 1015.6
20260507065211 51 302 0.0 0.9 0.00 0.00 0.00 100 1015.6
20260507065111 51 302 0.9 0.9 0.00 0.00 0.00 100 1015.7
20260507065013 51 302 0.0 0.9 0.00 0.00 0.00 100 1015.6
20260507064913 51 302 0.9 0.9 0.00 0.00 0.00 100 1015.7
20260507064813 51 302 0.0 0.9 0.00 0.00 0.00 100 1015.6
20260507064713 51 302 0.0 0.9 0.00 0.00 0.00 100 1015.6
20260507064612 51 302 0.0 0.9 0.00 0.00 0.00 100 1015.6
20260507064512 51 302 0.0 0.9 0.00 0.00 0.00 100 1015.6
20260507064412 51 302 0.0 0.9 0.00 0.00 0.00 100 1015.6
20260507064311 51 302 0.9 0.9 0.00 0.00 0.00 100 1015.6
20260507064213 51 302 0.9 1.7 0.00 0.00 0.00 100 1015.6
20260507064113 51 302 0.0 0.9 0.00 0.00 0.00 100 1015.6
20260507064013 51 302 0.0 0.9 0.00 0.00 0.00 100 1015.6
20260507063913 51 302 0.0 0.0 0.00 0.00 0.00 100 1015.6
20260507063813 51 302 0.0 0.0 0.00 0.00 0.00 100 1015.6
20260507063713 51 302 0.0 0.9 0.00 0.00 0.00 100 1015.6
20260507063613 51 302 0.0 0.9 0.00 0.00 0.00 100 1015.6
20260507063512 51 302 0.0 0.9 0.00 0.00 0.00 100 1015.6
20260507063412 51 302 0.9 0.9 0.00 0.00 0.00 100 1015.5
20260507063312 51 302 0.0 0.0 0.00 0.00 0.00 100 1015.6
20260507063212 51 302 0.9 0.9 0.00 0.00 0.00 100 1015.5
20260507063111 51 302 0.0 0.9 0.00 0.00 0.00 100 1015.6
20260507063011 51 302 0.0 0.9 0.00 0.00 0.00 100 1015.6
20260507062913 51 302 0.0 0.9 0.00 0.00 0.00 100 1015.5
20260507062813 51 302 0.9 0.9 0.00 0.00 0.00 100 1015.5
20260507062712 51 302 0.0 1.7 0.00 0.00 0.00 100 1015.5
20260507062613 50 302 0.0 1.7 0.00 0.00 0.00 100 1015.5
20260507062513 50 302 0.0 0.9 0.00 0.00 0.00 100 1015.5
20260507062413 50 302 0.0 0.9 0.00 0.00 0.00 100 1015.4
20260507062313 50 302 0.0 0.9 0.00 0.00 0.00 100 1015.5
20260507062213 50 302 0.9 0.9 0.00 0.00 0.00 100 1015.5
20260507062113 50 302 0.0 0.9 0.00 0.00 0.00 100 1015.5
20260507062013 50 302 0.0 0.9 0.00 0.00 0.00 100 1015.5
20260507061912 50 302 0.0 0.9 0.00 0.00 0.00 100 1015.4
20260507061811 50 302 0.0 0.9 0.00 0.00 0.00 100 1015.5
20260507061712 50 302 0.0 1.7 0.00 0.00 0.00 100 1015.4
20260507061613 50 302 0.0 1.7 0.00 0.00 0.00 100 1015.4
20260507061513 50 302 0.0 1.7 0.00 0.00 0.00 100 1015.5
20260507061413 50 302 0.0 1.7 0.00 0.00 0.00 100 1015.4
20260507061313 50 302 0.9 1.7 0.00 0.00 0.00 100 1015.4
20260507061213 50 302 0.9 1.7 0.00 0.00 0.00 100 1015.4
20260507061112 50 302 0.0 0.9 0.00 0.00 0.00 100 1015.4
20260507061012 50 302 0.0 0.9 0.00 0.00 0.00 100 1015.4
20260507060912 50 302 0.9 0.9 0.00 0.00 0.00 100 1015.4
20260507060812 50 302 0.9 0.9 0.00 0.00 0.00 100 1015.4
20260507060712 50 302 0.0 0.9 0.00 0.00 0.00 100 1015.4
20260507060612 50 302 0.0 0.9 0.00 0.00 0.00 100 1015.4
20260507060512 50 302 0.9 0.9 0.00 0.00 0.00 100 1015.4
20260507060412 50 302 0.0 0.9 0.00 0.00 0.00 100 1015.3
20260507060312 50 302 0.0 0.9 0.00 0.00 0.00 100 1015.3
20260507060212 50 302 0.9 1.7 0.00 0.00 0.00 100 1015.3
20260507060112 50 302 0.9 1.7 0.00 0.00 0.00 100 1015.3
20260507060012 50 302 0.0 1.7 0.00 0.00 0.00 100 1015.3
20260507055912 50 302 0.0 0.9 0.00 0.00 0.00 100 1015.3
20260507055812 50 302 0.0 0.0 0.00 0.00 0.00 100 1015.3
20260507055712 50 302 0.0 0.9 0.00 0.00 0.00 100 1015.2
20260507055612 50 302 0.0 0.9 0.00 0.00 0.00 100 1015.2
20260507055512 50 302 0.9 0.9 0.00 0.00 0.00 100 1015.2
20260507055411 49 302 0.0 0.9 0.00 0.00 0.00 100 1015.2
20260507055311 49 302 0.0 0.9 0.00 0.00 0.00 100 1015.2
20260507055211 49 302 0.9 1.7 0.00 0.00 0.00 100 1015.2
20260507055112 49 302 0.9 1.7 0.00 0.00 0.00 100 1015.2
20260507055012 49 302 0.9 1.7 0.00 0.00 0.00 100 1015.1
20260507054912 49 302 1.7 1.7 0.00 0.00 0.00 100 1015.2
20260507054813 49 302 0.9 1.7 0.00 0.00 0.00 100 1015.1
20260507054713 49 302 0.9 0.9 0.00 0.00 0.00 100 1015.1
20260507054613 49 302 0.0 0.0 0.00 0.00 0.00 100 1015.2
20260507054513 49 302 0.0 0.0 0.00 0.00 0.00 100 1015.1
20260507054413 49 302 0.0 0.0 0.00 0.00 0.00 100 1015.1
20260507054312 49 302 0.0 0.0 0.00 0.00 0.00 100 1015.2
20260507054212 49 302 0.0 0.9 0.00 0.00 0.00 100 1015.2
20260507054113 49 302 0.0 0.9 0.00 0.00 0.00 100 1015.2
20260507054013 49 302 0.0 0.9 0.00 0.00 0.00 100 1015.2
20260507053913 49 302 0.9 0.9 0.00 0.00 0.00 100 1015.1
20260507053812 49 302 0.0 0.9 0.00 0.00 0.00 100 1015.2
20260507053712 49 302 0.9 1.7 0.00 0.00 0.00 100 1015.1
20260507053611 49 302 0.0 1.7 0.00 0.00 0.00 100 1015.1
20260507053511 49 302 0.0 1.7 0.00 0.00 0.00 100 1015.1
20260507053411 49 302 0.9 1.7 0.00 0.00 0.00 100 1015.1
20260507053311 49 302 0.0 1.7 0.00 0.00 0.00 100 1015.1
20260507053211 49 302 0.9 0.9 0.00 0.00 0.00 100 1015.1
20260507053113 49 302 0.9 0.9 0.00 0.00 0.00 100 1015.1
20260507053013 49 302 0.0 0.0 0.00 0.00 0.00 100 1015.1
20260507052912 49 302 0.0 0.0 0.00 0.00 0.00 100 1015.1
20260507052812 49 302 0.0 0.0 0.00 0.00 0.00 100 1015.0
20260507052712 49 302 0.0 0.9 0.00 0.00 0.00 100 1015.1
20260507052612 49 302 0.0 0.9 0.00 0.00 0.00 100 1015.1
20260507052513 49 302 0.9 0.9 0.00 0.00 0.00 100 1015.1
20260507052411 49 302 0.0 0.9 0.00 0.00 0.00 100 1015.0
20260507052311 49 302 0.0 0.9 0.00 0.00 0.00 100 1015.1
20260507052213 49 302 0.9 0.9 0.00 0.00 0.00 100 1015.1
20260507052113 49 302 0.9 0.9 0.00 0.00 0.00 100 1015.1
20260507052013 49 302 0.0 0.0 0.00 0.00 0.00 100 1015.1
20260507051913 49 302 0.0 0.0 0.00 0.00 0.00 100 1015.1
20260507051813 49 302 0.0 0.0 0.00 0.00 0.00 100 1015.1
20260507051713 49 302 0.0 0.9 0.00 0.00 0.00 100 1015.1
20260507051612 49 302 0.0 0.9 0.00 0.00 0.00 100 1015.1
20260507051512 49 302 0.0 0.0 0.00 0.00 0.00 100 1015.1
20260507051412 49 302 0.0 0.0 0.00 0.00 0.00 100 1015.1
20260507051311 49 302 0.0 0.0 0.00 0.00 0.00 100 1015.0
20260507051211 49 302 0.0 0.9 0.00 0.00 0.00 100 1015.1
20260507051111 49 302 0.0 0.9 0.00 0.00 0.00 100 1015.1
20260507051011 49 302 0.0 0.9 0.00 0.00 0.00 100 1015.1
20260507050911 49 302 0.0 0.9 0.00 0.00 0.00 100 1015.1
20260507050812 49 302 0.9 0.9 0.00 0.00 0.00 100 1015.1
20260507050712 49 302 0.9 0.9 0.00 0.00 0.00 100 1015.0
20260507050612 49 302 0.0 0.9 0.00 0.00 0.00 100 1015.0
20260507050512 49 302 0.0 0.9 0.00 0.00 0.00 100 1015.0
20260507050413 49 302 0.0 0.0 0.00 0.00 0.00 100 1015.0
20260507050313 49 302 0.0 0.0 0.00 0.00 0.00 100 1015.1
20260507050213 49 302 0.0 0.9 0.00 0.00 0.00 100 1015.0
20260507050112 49 302 0.0 0.9 0.00 0.00 0.00 100 1015.0
20260507050012 49 302 0.0 0.0 0.00 0.00 0.00 100 1015.0
20260507045912 49 302 0.0 0.0 0.00 0.00 0.00 100 1015.0
20260507045812 49 302 0.0 0.0 0.00 0.00 0.00 100 1015.0
20260507045712 49 302 0.0 0.0 0.00 0.00 0.00 100 1015.0
20260507045612 49 302 0.0 0.0 0.00 0.00 0.00 100 1015.0
20260507045512 49 302 0.0 0.0 0.00 0.00 0.00 100 1015.0
20260507045413 49 302 0.0 0.0 0.00 0.00 0.00 100 1014.9
20260507045313 49 302 0.0 0.0 0.00 0.00 0.00 100 1014.9
20260507045213 49 302 0.0 0.0 0.00 0.00 0.00 100 1014.9
20260507045113 49 302 0.0 0.0 0.00 0.00 0.00 100 1014.9
20260507045013 49 302 0.0 0.0 0.00 0.00 0.00 100 1014.9
20260507044913 49 302 0.0 0.0 0.00 0.00 0.00 100 1014.9
20260507044813 49 302 0.0 0.0 0.00 0.00 0.00 100 1014.9
20260507044713 49 302 0.0 0.0 0.00 0.00 0.00 100 1014.9
20260507044612 49 302 0.0 0.0 0.00 0.00 0.00 100 1014.9
20260507044512 49 302 0.0 0.0 0.00 0.00 0.00 100 1014.9
20260507044412 49 302 0.0 0.0 0.00 0.00 0.00 100 1014.9
20260507044312 49 302 0.0 0.0 0.00 0.00 0.00 100 1014.9
20260507044212 49 302 0.0 0.0 0.00 0.00 0.00 100 1014.9
20260507044113 49 302 0.0 0.0 0.00 0.00 0.00 100 1014.9
20260507044013 49 302 0.0 0.0 0.00 0.00 0.00 100 1014.9
20260507043913 49 302 0.0 0.0 0.00 0.00 0.00 100 1014.9
20260507043813 49 302 0.0 0.0 0.00 0.00 0.00 100 1014.8
20260507043713 49 302 0.0 0.0 0.00 0.00 0.00 100 1014.8
20260507043612 49 302 0.0 0.0 0.00 0.00 0.00 100 1014.8
20260507043512 49 302 0.0 0.0 0.00 0.00 0.00 100 1014.9
20260507043412 49 302 0.0 0.0 0.00 0.00 0.00 100 1014.9
20260507043312 49 302 0.0 0.0 0.00 0.00 0.00 100 1014.9
20260507043212 49 302 0.0 0.0 0.00 0.00 0.00 100 1014.8
20260507043111 49 302 0.0 0.0 0.00 0.00 0.00 100 1014.8
20260507043011 49 302 0.0 0.0 0.00 0.00 0.00 100 1014.8
20260507042911 49 302 0.0 0.0 0.00 0.00 0.00 100 1014.8
20260507042812 49 302 0.0 0.0 0.00 0.00 0.00 100 1014.8
20260507042712 49 302 0.0 0.0 0.00 0.00 0.00 100 1014.8
20260507042612 49 302 0.0 0.0 0.00 0.00 0.00 100 1014.8
20260507042512 49 302 0.0 0.0 0.00 0.00 0.00 100 1014.8
20260507042412 49 302 0.0 0.0 0.00 0.00 0.00 100 1014.8
20260507042312 49 302 0.0 0.0 0.00 0.00 0.00 100 1014.9
20260507042212 49 302 0.0 0.0 0.00 0.00 0.00 100 1014.9
20260507042112 49 302 0.0 0.0 0.00 0.00 0.00 100 1014.8
20260507042012 49 302 0.0 0.0 0.00 0.00 0.00 100 1014.8
20260507041913 49 302 0.0 0.0 0.00 0.00 0.00 100 1014.8
20260507041813 49 302 0.0 0.0 0.00 0.00 0.00 100 1014.8
20260507041713 49 302 0.0 0.0 0.00 0.00 0.00 100 1014.8
20260507041612 49 302 0.0 0.0 0.00 0.00 0.00 100 1014.8
20260507041512 49 302 0.0 0.0 0.00 0.00 0.00 100 1014.8
20260507041412 49 302 0.0 0.0 0.00 0.00 0.00 100 1014.7
20260507041312 49 302 0.0 0.0 0.00 0.00 0.00 100 1014.7
20260507041212 49 302 0.0 0.0 0.00 0.00 0.00 100 1014.7
20260507041111 49 302 0.0 0.0 0.00 0.00 0.00 100 1014.7
20260507041011 49 302 0.0 0.0 0.00 0.00 0.00 100 1014.7
20260507040913 49 302 0.0 0.0 0.00 0.00 0.00 100 1014.7
20260507040813 49 302 0.0 0.0 0.00 0.00 0.00 100 1014.7
20260507040712 49 302 0.0 0.0 0.00 0.00 0.00 100 1014.7
20260507040611 49 302 0.0 0.0 0.00 0.00 0.00 100 1014.7
20260507040511 49 302 0.0 0.0 0.00 0.00 0.00 100 1014.7
20260507040411 49 302 0.0 0.0 0.00 0.00 0.00 100 1014.7
20260507040311 49 302 0.0 0.0 0.00 0.00 0.00 100 1014.7
20260507040211 49 302 0.0 0.0 0.00 0.00 0.00 100 1014.7
20260507040113 49 302 0.0 0.0 0.00 0.00 0.00 100 1014.7
20260507040013 49 302 0.0 0.0 0.00 0.00 0.00 100 1014.7
20260507035913 49 302 0.0 0.0 0.00 0.00 0.00 100 1014.7
20260507035813 49 302 0.0 0.0 0.00 0.00 0.00 100 1014.7
20260507035712 49 302 0.0 0.0 0.00 0.00 0.00 100 1014.7
20260507035612 49 302 0.0 0.0 0.00 0.00 0.00 100 1014.7
20260507035512 49 302 0.0 0.0 0.00 0.00 0.00 100 1014.7
20260507035412 49 302 0.0 0.0 0.00 0.00 0.00 100 1014.7
20260507035312 49 302 0.0 0.0 0.00 0.00 0.00 100 1014.7
20260507035212 49 302 0.0 0.9 0.00 0.00 0.00 100 1014.7
20260507035112 49 302 0.0 0.9 0.00 0.00 0.00 100 1014.7
20260507035013 49 302 0.0 0.9 0.00 0.00 0.00 100 1014.7
20260507034913 49 302 0.9 0.9 0.00 0.00 0.00 100 1014.7
20260507034813 49 302 0.0 0.9 0.00 0.00 0.00 100 1014.7
20260507034713 49 302 0.0 0.9 0.00 0.00 0.00 100 1014.7
20260507034613 49 302 0.0 0.9 0.00 0.00 0.00 100 1014.7
20260507034513 49 302 0.0 0.9 0.00 0.00 0.00 100 1014.7
20260507034413 49 302 0.9 0.9 0.00 0.00 0.00 100 1014.7
20260507034312 49 302 0.0 0.0 0.00 0.00 0.00 100 1014.7
20260507034212 49 302 0.0 0.0 0.00 0.00 0.00 100 1014.7
20260507034112 49 302 0.0 0.0 0.00 0.00 0.00 100 1014.6
20260507034011 49 302 0.0 0.0 0.00 0.00 0.00 100 1014.7
20260507033911 49 302 0.0 0.0 0.00 0.00 0.00 100 1014.6
20260507033811 49 302 0.0 0.0 0.00 0.00 0.00 100 1014.6
20260507033711 49 302 0.0 0.9 0.00 0.00 0.00 100 1014.7
20260507033613 49 302 0.0 0.9 0.00 0.00 0.00 100 1014.7
20260507033513 49 302 0.0 0.9 0.00 0.00 0.00 100 1014.6
20260507033413 49 302 0.0 0.9 0.00 0.00 0.00 100 1014.6
20260507033312 49 302 0.0 0.9 0.00 0.00 0.00 100 1014.6
20260507033212 49 302 0.0 0.9 0.00 0.00 0.00 100 1014.7
20260507033112 49 302 0.0 0.9 0.00 0.00 0.00 100 1014.6
20260507033012 49 302 0.9 0.9 0.00 0.00 0.00 100 1014.7
20260507032912 49 302 0.9 0.9 0.00 0.00 0.00 100 1014.6
20260507032812 49 302 0.9 0.9 0.00 0.00 0.00 100 1014.6
20260507032712 49 302 0.0 1.7 0.00 0.00 0.00 100 1014.6
20260507032612 49 302 0.9 1.7 0.00 0.00 0.00 100 1014.6
20260507032511 49 302 0.9 1.7 0.00 0.00 0.00 100 1014.6
20260507032411 49 302 0.9 0.9 0.00 0.00 0.00 100 1014.6
20260507032311 49 302 0.9 0.9 0.00 0.00 0.00 100 1014.6
20260507032212 49 302 0.0 0.9 0.00 0.00 0.00 100 1014.6
20260507032111 49 302 0.0 0.9 0.00 0.00 0.00 100 1014.6
20260507032011 49 302 0.0 0.9 0.00 0.00 0.00 100 1014.6
20260507031913 49 302 0.0 0.9 0.00 0.00 0.00 100 1014.6
20260507031813 49 302 0.0 0.0 0.00 0.00 0.00 100 1014.7
20260507031712 49 302 0.0 0.0 0.00 0.00 0.00 100 1014.6
20260507031612 49 302 0.0 0.0 0.00 0.00 0.00 100 1014.7
20260507031512 49 302 0.0 0.0 0.00 0.00 0.00 100 1014.7
20260507031411 49 302 0.0 0.0 0.00 0.00 0.00 100 1014.6
20260507031311 49 302 0.0 0.0 0.00 0.00 0.00 100 1014.6
20260507031211 49 302 0.0 0.0 0.00 0.00 0.00 100 1014.6
20260507031111 49 302 0.0 0.0 0.00 0.00 0.00 100 1014.6
20260507031011 49 302 0.0 0.0 0.00 0.00 0.00 100 1014.6
20260507030911 49 302 0.0 0.0 0.00 0.00 0.00 100 1014.6
20260507030813 50 302 0.0 0.0 0.00 0.00 0.00 100 1014.6
20260507030713 50 302 0.0 0.0 0.00 0.00 0.00 100 1014.6
20260507030613 50 302 0.0 0.0 0.00 0.00 0.00 100 1014.7
20260507030512 50 302 0.0 0.0 0.00 0.00 0.00 100 1014.6
20260507030412 50 302 0.0 0.0 0.00 0.00 0.00 100 1014.6
20260507030312 50 302 0.0 0.0 0.00 0.00 0.00 100 1014.6
20260507030213 50 302 0.0 0.0 0.00 0.00 0.00 100 1014.6
20260507030112 50 302 0.0 0.0 0.00 0.00 0.00 100 1014.6
20260507030013 50 302 0.0 0.0 0.00 0.00 0.00 100 1014.6
20260507025912 50 302 0.0 0.0 0.00 0.00 0.00 100 1014.6
20260507025811 50 302 0.0 0.0 0.00 0.00 0.00 100 1014.6
20260507025711 50 302 0.0 0.9 0.00 0.00 0.00 100 1014.6
20260507025611 50 302 0.0 0.9 0.00 0.00 0.00 100 1014.6
20260507025511 50 302 0.0 0.9 0.00 0.00 0.00 100 1014.5
20260507025411 50 302 0.0 0.0 0.00 0.00 0.00 100 1014.5
20260507025313 50 302 0.0 0.0 0.00 0.00 0.00 100 1014.6
20260507025213 50 302 0.0 0.0 0.00 0.00 0.00 100 1014.5
20260507025113 50 302 0.0 0.0 0.00 0.00 0.00 100 1014.5
20260507025013 50 302 0.0 0.0 0.00 0.00 0.00 100 1014.5
20260507024913 50 302 0.0 0.0 0.00 0.00 0.00 100 1014.5
20260507024813 50 302 0.0 0.0 0.00 0.00 0.00 100 1014.5
20260507024712 50 302 0.0 0.0 0.00 0.00 0.00 100 1014.5
20260507024613 50 302 0.0 0.0 0.00 0.00 0.00 100 1014.5
20260507024512 50 302 0.0 0.0 0.00 0.00 0.00 100 1014.4
20260507024412 50 302 0.0 0.0 0.00 0.00 0.00 100 1014.4
20260507024312 50 302 0.0 0.0 0.00 0.00 0.00 100 1014.4
20260507024212 50 302 0.0 0.9 0.00 0.00 0.00 100 1014.4
20260507024112 50 302 0.0 0.9 0.00 0.00 0.00 100 1014.4
20260507024012 50 302 0.0 0.9 0.00 0.00 0.00 100 1014.4
20260507023912 50 302 0.0 0.9 0.00 0.00 0.00 100 1014.4
20260507023812 50 302 0.9 0.9 0.00 0.00 0.00 100 1014.4
20260507023712 50 302 0.0 0.9 0.00 0.00 0.00 100 1014.4
20260507023612 50 302 0.0 0.9 0.00 0.00 0.00 100 1014.4
20260507023513 50 302 0.0 0.9 0.00 0.00 0.00 100 1014.4
20260507023413 50 302 0.0 0.9 0.00 0.00 0.00 100 1014.4
20260507023313 50 302 0.0 0.9 0.00 0.00 0.00 100 1014.3
20260507023212 50 302 0.0 0.9 0.00 0.00 0.00 100 1014.4
20260507023112 50 302 0.0 0.9 0.00 0.00 0.00 100 1014.4
20260507023012 50 302 0.0 0.0 0.00 0.00 0.00 100 1014.4
20260507022912 50 302 0.0 0.0 0.00 0.00 0.00 100 1014.3
20260507022812 50 302 0.0 0.0 0.00 0.00 0.00 100 1014.3
20260507022712 50 302 0.0 0.0 0.00 0.00 0.00 100 1014.4
20260507022612 50 302 0.0 0.0 0.00 0.00 0.00 100 1014.4
20260507022512 50 302 0.0 0.0 0.00 0.00 0.00 100 1014.4
20260507022412 50 302 0.0 0.0 0.00 0.00 0.00 100 1014.4
20260507022313 50 302 0.0 0.0 0.00 0.00 0.00 100 1014.3
20260507022213 50 302 0.0 0.0 0.00 0.00 0.00 100 1014.3
20260507022113 50 302 0.0 0.0 0.00 0.00 0.00 100 1014.4
20260507022013 50 302 0.0 0.0 0.00 0.00 0.00 100 1014.3
20260507021913 50 302 0.0 0.0 0.00 0.00 0.00 100 1014.3
20260507021813 50 302 0.0 0.0 0.00 0.00 0.00 100 1014.3
20260507021713 50 302 0.0 0.0 0.00 0.00 0.00 100 1014.3
20260507021612 50 302 0.0 0.0 0.00 0.00 0.00 100 1014.3
20260507021512 50 302 0.0 0.0 0.00 0.00 0.00 100 1014.3
20260507021412 50 302 0.0 0.0 0.00 0.00 0.00 100 1014.3
20260507021312 50 302 0.0 0.0 0.00 0.00 0.00 100 1014.3
20260507021212 50 302 0.0 0.9 0.00 0.00 0.00 100 1014.3
20260507021112 50 302 0.0 0.9 0.00 0.00 0.00 100 1014.3
20260507021012 50 302 0.0 0.9 0.00 0.00 0.00 100 1014.3
20260507020912 50 302 0.0 0.9 0.00 0.00 0.00 100 1014.3
20260507020812 50 302 0.0 0.0 0.00 0.00 0.00 100 1014.3
20260507020712 50 302 0.0 1.7 0.00 0.00 0.00 100 1014.3
20260507020612 50 302 0.9 1.7 0.00 0.00 0.00 100 1014.3
20260507020512 50 302 0.9 1.7 0.00 0.00 0.00 100 1014.3
20260507020411 50 302 0.0 1.7 0.00 0.00 0.00 100 1014.3
20260507020311 50 302 0.0 1.7 0.00 0.00 0.00 100 1014.3
20260507020211 50 302 0.9 0.9 0.00 0.00 0.00 100 1014.3
20260507020113 50 302 0.0 0.0 0.00 0.00 0.00 100 1014.3
20260507020013 50 302 0.0 0.0 0.00 0.00 0.00 100 1014.3
20260507015911 50 302 0.0 0.0 0.00 0.00 0.00 100 1014.3
20260507015811 50 302 0.0 0.0 0.00 0.00 0.00 100 1014.3
20260507015711 50 302 0.0 0.9 0.00 0.00 0.00 100 1014.3
20260507015611 50 302 0.9 0.9 0.00 0.00 0.00 100 1014.3
20260507015511 50 302 0.9 0.9 0.00 0.00 0.00 100 1014.3
20260507015413 50 302 0.0 0.9 0.00 0.00 0.00 100 1014.3
20260507015313 50 302 0.0 0.9 0.00 0.00 0.00 100 1014.3
20260507015213 50 302 0.0 0.0 0.00 0.00 0.00 100 1014.3
20260507015113 50 302 0.0 0.0 0.00 0.00 0.00 100 1014.3
20260507015013 50 302 0.0 0.0 0.00 0.00 0.00 100 1014.2
20260507014913 50 302 0.0 0.0 0.00 0.00 0.00 100 1014.3
20260507014813 50 302 0.0 0.0 0.00 0.00 0.00 100 1014.2
20260507014713 50 302 0.0 0.0 0.00 0.00 0.00 100 1014.2
20260507014613 50 302 0.0 0.0 0.00 0.00 0.00 100 1014.2
20260507014512 50 302 0.0 0.0 0.00 0.00 0.00 100 1014.2
20260507014412 50 302 0.0 0.0 0.00 0.00 0.00 100 1014.3
20260507014312 50 302 0.0 0.0 0.00 0.00 0.00 100 1014.3
20260507014212 50 302 0.0 0.0 0.00 0.00 0.00 100 1014.3
20260507014112 50 302 0.0 0.0 0.00 0.00 0.00 100 1014.2
20260507014012 50 302 0.0 0.0 0.00 0.00 0.00 100 1014.2
20260507013912 50 302 0.0 0.0 0.00 0.00 0.00 100 1014.2
20260507013812 50 302 0.0 0.0 0.00 0.00 0.00 100 1014.3
20260507013712 50 302 0.0 0.0 0.00 0.00 0.00 100 1014.2
20260507013612 50 302 0.0 0.0 0.00 0.00 0.00 100 1014.2
20260507013512 50 302 0.0 0.0 0.00 0.00 0.00 100 1014.2
20260507013412 50 302 0.0 0.0 0.00 0.00 0.00 100 1014.2
20260507013312 50 302 0.0 0.0 0.00 0.00 0.00 100 1014.2
20260507013211 50 302 0.9 0.9 0.00 0.00 0.00 100 1014.3
20260507013113 50 302 0.0 0.9 0.00 0.00 0.00 100 1014.3
20260507013013 50 302 0.0 0.9 0.00 0.00 0.00 100 1014.3
20260507012913 50 302 0.0 0.9 0.00 0.00 0.00 100 1014.3
20260507012813 50 302 0.9 0.9 0.00 0.00 0.00 100 1014.3
20260507012713 50 302 0.0 0.9 0.00 0.00 0.00 100 1014.3
20260507012613 50 302 0.0 0.9 0.00 0.00 0.00 100 1014.3
20260507012513 50 302 0.0 0.9 0.00 0.00 0.00 100 1014.3
20260507012413 50 302 0.9 0.9 0.00 0.00 0.00 100 1014.3
20260507012313 50 302 0.0 0.9 0.00 0.00 0.00 100 1014.3
20260507012213 50 302 0.0 0.9 0.00 0.00 0.00 100 1014.3
20260507012113 50 302 0.0 0.9 0.00 0.00 0.00 100 1014.3
20260507012013 50 302 0.0 0.9 0.00 0.00 0.00 100 1014.3
20260507011912 50 302 0.0 0.9 0.00 0.00 0.00 100 1014.3
20260507011810 50 302 0.9 0.9 0.00 0.00 0.00 100 1014.3
20260507011710 50 302 0.0 1.7 0.00 0.00 0.00 100 1014.3
20260507011612 50 302 0.9 1.7 0.00 0.00 0.00 100 1014.3
20260507011212 50 302 0.0 1.7 0.00 0.00 0.00 100 1014.3
20260507011126 50 302 0.9 1.7 0.00 0.00 0.00 100 1014.3
20260507011026 50 302 0.0 1.7 0.00 0.00 0.00 100 1014.3
20260507010926 50 302 0.0 1.7 0.00 0.00 0.00 100 1014.3
20260507010826 50 302 1.7 1.7 0.00 0.00 0.00 100 1014.3
20260507010712 50 302 0.9 1.7 0.00 0.00 0.00 100 1014.3
20260507010626 50 302 0.9 1.7 0.00 0.00 0.00 100 1014.3
20260507010526 50 295 0.9 0.9 0.00 0.00 0.00 100 1014.3
20260507010425 50 295 0.0 0.9 0.00 0.00 0.00 100 1014.3
20260507010327 50 295 0.0 0.0 0.00 0.00 0.00 100 1014.3
20260507010213 50 295 0.0 0.0 0.00 0.00 0.00 100 1014.4
20260507010126 50 295 0.0 0.0 0.00 0.00 0.00 100 1014.3
20260507010026 50 295 0.0 0.0 0.00 0.00 0.00 100 1014.4
20260507005925 50 295 0.0 0.0 0.00 0.00 0.00 100 1014.3
20260507005825 50 295 0.0 0.0 0.00 0.00 0.00 100 1014.4
20260507005713 50 295 0.0 0.9 0.00 0.00 0.00 100 1014.4
20260507005627 50 295 0.0 0.9 0.00 0.00 0.00 100 1014.3
20260507005527 50 295 0.0 0.9 0.00 0.00 0.00 100 1014.4
20260507005427 50 295 0.9 0.9 0.00 0.00 0.00 100 1014.4
20260507005327 50 295 0.0 0.9 0.00 0.00 0.00 100 1014.3
20260507005213 50 295 0.9 0.9 0.00 0.00 0.00 100 1014.3
20260507005126 50 295 0.0 0.9 0.00 0.00 0.00 100 1014.3
20260507005025 50 295 0.0 0.0 0.00 0.00 0.00 100 1014.3
20260507004925 50 295 0.0 0.0 0.00 0.00 0.00 100 1014.3
20260507004825 50 295 0.0 0.0 0.00 0.00 0.00 100 1014.3
20260507004711 50 295 0.0 0.0 0.00 0.00 0.00 100 1014.3
20260507004625 50 295 0.0 0.0 0.00 0.00 0.00 100 1014.3
20260507004525 50 295 0.0 0.0 0.00 0.00 0.00 100 1014.3
20260507004425 50 295 0.0 0.0 0.00 0.00 0.00 100 1014.3
20260507004326 50 295 0.0 0.0 0.00 0.00 0.00 100 1014.3
20260507004212 51 295 0.0 0.9 0.00 0.00 0.00 100 1014.3
20260507004125 50 295 0.0 0.9 0.00 0.00 0.00 100 1014.3
20260507004025 51 295 0.0 0.9 0.00 0.00 0.00 100 1014.3
20260507003926 51 295 0.0 0.0 0.00 0.00 0.00 100 1014.3
20260507003826 51 295 0.0 0.0 0.00 0.00 0.00 100 1014.3
20260507003712 51 295 0.0 0.0 0.00 0.00 0.00 100 1014.3
20260507003626 51 295 0.0 0.0 0.00 0.00 0.00 100 1014.3
20260507003526 51 295 0.0 0.0 0.00 0.00 0.00 100 1014.3
20260507003426 51 295 0.0 0.0 0.00 0.00 0.00 100 1014.3
20260507003326 51 295 0.0 0.0 0.00 0.00 0.00 100 1014.4
20260507003212 51 295 0.0 0.0 0.00 0.00 0.00 100 1014.4
20260507003126 51 295 0.0 0.0 0.00 0.00 0.00 100 1014.3
20260507003026 51 295 0.0 0.0 0.00 0.00 0.00 100 1014.3
20260507002926 51 295 0.0 0.0 0.00 0.00 0.00 100 1014.4
20260507002826 51 295 0.0 0.0 0.00 0.00 0.00 100 1014.4
20260507002712 51 295 0.0 0.0 0.00 0.00 0.00 100 1014.3
20260507002626 51 295 0.0 0.0 0.00 0.00 0.00 100 1014.3
20260507002526 51 295 0.0 0.0 0.00 0.00 0.00 100 1014.3
20260507002426 51 295 0.0 0.0 0.00 0.00 0.00 100 1014.3
20260507002325 51 295 0.0 0.0 0.00 0.00 0.00 100 1014.3
20260507002211 51 295 0.0 0.0 0.00 0.00 0.00 100 1014.3
20260507002125 51 295 0.0 0.0 0.00 0.00 0.00 100 1014.3
20260507002027 51 295 0.0 0.0 0.00 0.00 0.00 100 1014.3
20260507001927 51 295 0.0 0.0 0.00 0.00 0.00 100 1014.3
20260507001827 51 295 0.0 0.0 0.00 0.00 0.00 100 1014.3
20260507001713 51 295 0.9 0.9 0.00 0.00 0.00 100 1014.3
20260507001626 51 295 0.9 0.9 0.00 0.00 0.00 100 1014.3
20260507001526 51 295 0.9 0.9 0.00 0.00 0.00 100 1014.3
20260507001426 51 295 0.0 0.0 0.00 0.00 0.00 100 1014.3
20260507001325 51 295 0.0 0.0 0.00 0.00 0.00 100 1014.3
20260507001211 51 295 0.0 0.0 0.00 0.00 0.00 100 1014.3
20260507001125 51 295 0.0 0.0 0.00 0.00 0.00 100 1014.3
20260507001025 51 295 0.0 0.0 0.00 0.00 0.00 100 1014.3
20260507000925 51 295 0.0 0.0 0.00 0.00 0.00 100 1014.3
20260507000825 51 295 0.0 0.0 0.00 0.00 0.00 100 1014.3
20260507000712 51 295 0.0 0.9 0.00 0.00 0.00 100 1014.3
20260507000626 51 295 0.0 0.9 0.00 0.00 0.00 100 1014.3
20260507000526 51 295 0.0 0.9 0.00 0.00 0.00 100 1014.3
20260507000427 51 295 0.0 0.9 0.00 0.00 0.00 100 1014.3
20260507000328 51 295 0.0 0.0 0.00 0.00 0.00 100 1014.3
20260507000212 51 295 0.0 0.0 0.00 0.00 0.00 100 1014.3
20260507000126 51 295 0.0 0.0 0.00 0.00 0.00 100 1014.3
20260507000026 51 295 0.0 0.0 0.00 0.00 0.00 100 1014.4
20260506235926 51 295 0.0 0.0 0.00 0.00 0.00 100 1014.4
20260506235825 51 295 0.0 0.0 0.00 0.00 0.00 100 1014.4
20260506235711 51 295 0.0 0.9 0.00 0.00 0.00 100 1014.4
20260506235626 51 295 0.0 0.9 0.00 0.00 0.00 100 1014.4
20260506235526 51 295 0.0 0.9 0.00 0.00 0.00 100 1014.4
20260506235426 51 295 0.0 0.9 0.00 0.00 0.00 100 1014.4
20260506235326 51 295 0.9 0.9 0.00 0.00 0.00 100 1014.4
20260506235211 51 295 0.0 1.7 0.00 0.00 0.00 100 1014.3
20260506235125 51 295 0.0 0.0 0.00 0.00 0.00 100 1014.3
20260506235025 51 295 0.0 0.0 0.00 0.00 0.00 100 1014.3
20260506234925 51 295 0.0 0.0 0.00 0.00 0.00 100 1014.4
20260506234825 51 295 0.0 0.0 0.00 0.00 0.00 100 1014.4
20260506234712 51 295 0.0 0.9 0.00 0.00 0.00 100 1014.4
20260506234626 51 295 0.0 0.9 0.00 0.00 0.00 100 1014.4
20260506234526 51 295 0.0 0.9 0.00 0.00 0.00 100 1014.4
20260506234426 51 295 0.0 0.9 0.00 0.00 0.00 100 1014.3
20260506234326 51 295 0.0 0.9 0.00 0.00 0.00 100 1014.3
20260506234212 51 292 0.0 0.9 0.00 0.00 0.00 100 1014.3
20260506234126 51 292 0.9 0.9 0.00 0.00 0.00 100 1014.3
20260506234026 51 292 0.9 0.9 0.00 0.00 0.00 100 1014.3
20260506233926 51 292 0.9 0.9 0.00 0.00 0.00 100 1014.3
20260506233826 51 292 0.9 0.9 0.00 0.00 0.00 100 1014.3
20260506233711 51 292 0.9 1.7 0.00 0.00 0.00 100 1014.3
20260506233625 51 292 0.9 1.7 0.00 0.00 0.00 100 1014.3
20260506233527 51 292 1.7 1.7 0.00 0.00 0.00 100 1014.3
20260506233427 51 292 0.9 0.9 0.00 0.00 0.00 100 1014.3
20260506233327 51 292 0.9 0.9 0.00 0.00 0.00 100 1014.3
20260506233213 51 292 1.7 1.7 0.00 0.00 0.00 100 1014.3
20260506233126 51 292 0.0 1.7 0.00 0.00 0.00 100 1014.3
20260506233025 51 292 0.9 0.9 0.00 0.00 0.00 100 1014.3
20260506232925 51 292 0.0 0.0 0.00 0.00 0.00 100 1014.3
20260506232825 51 292 0.0 0.0 0.00 0.00 0.00 100 1014.3
20260506232711 51 292 0.9 1.7 0.00 0.00 0.00 100 1014.3
20260506232625 51 292 0.9 1.7 0.00 0.00 0.00 100 1014.3
20260506232525 51 292 0.9 1.7 0.00 0.00 0.00 100 1014.3
20260506232425 51 292 0.9 1.7 0.00 0.00 0.00 100 1014.3
20260506232325 51 292 0.9 0.9 0.00 0.00 0.00 100 1014.4
20260506232211 51 292 0.9 0.9 0.00 0.00 0.00 100 1014.3
20260506232126 51 292 0.0 0.9 0.00 0.00 0.00 100 1014.3
20260506232026 51 292 0.9 0.9 0.00 0.00 0.00 100 1014.3
20260506231926 51 292 0.9 0.9 0.00 0.00 0.00 100 1014.3
20260506231826 51 292 0.0 0.0 0.00 0.00 0.00 100 1014.3
20260506231712 51 292 0.0 0.9 0.00 0.00 0.00 100 1014.3
20260506231625 51 292 0.0 0.9 0.00 0.00 0.00 100 1014.3
20260506231525 51 292 0.9 0.9 0.00 0.00 0.00 100 1014.3
20260506231425 51 292 0.0 0.9 0.00 0.00 0.00 100 1014.3
20260506231325 51 292 0.0 0.0 0.00 0.00 0.00 100 1014.3
20260506231211 51 292 0.9 0.9 0.00 0.00 0.00 100 1014.3
20260506231125 51 292 0.0 0.0 0.00 0.00 0.00 100 1014.2
20260506231026 51 292 0.0 0.0 0.00 0.00 0.00 100 1014.2
20260506230926 51 292 0.0 0.0 0.00 0.00 0.00 100 1014.2
20260506230826 51 292 0.0 0.0 0.00 0.00 0.00 100 1014.2
20260506230712 51 292 0.0 0.9 0.00 0.00 0.00 100 1014.2
20260506230625 51 292 0.0 0.9 0.00 0.00 0.00 100 1014.2
20260506230525 51 292 0.0 0.9 0.00 0.00 0.00 100 1014.2
20260506230425 51 292 0.0 0.9 0.00 0.00 0.00 100 1014.2
20260506230325 51 292 0.0 0.9 0.00 0.00 0.00 100 1014.2
20260506230213 51 292 0.0 0.9 0.00 0.00 0.00 100 1014.2
20260506230127 51 292 0.0 0.9 0.00 0.00 0.00 100 1014.2
20260506230026 51 292 0.0 0.9 0.00 0.00 0.00 100 1014.2
20260506225926 51 292 0.9 0.9 0.00 0.00 0.00 100 1014.2
20260506225826 51 292 0.9 0.9 0.00 0.00 0.00 100 1014.2
20260506225712 51 292 0.0 0.9 0.00 0.00 0.00 100 1014.2
20260506225626 51 292 0.0 0.9 0.00 0.00 0.00 100 1014.2
20260506225525 51 292 0.0 0.9 0.00 0.00 0.00 100 1014.2
20260506225425 51 292 0.0 0.9 0.00 0.00 0.00 100 1014.2
20260506225325 51 292 0.0 0.9 0.00 0.00 0.00 100 1014.2
20260506225213 51 292 0.0 0.9 0.00 0.00 0.00 100 1014.2
20260506225127 51 292 0.0 0.9 0.00 0.00 0.00 100 1014.2
20260506225026 51 292 0.9 0.9 0.00 0.00 0.00 100 1014.2
20260506224926 51 292 0.0 0.9 0.00 0.00 0.00 100 1014.2
20260506224826 51 292 0.0 0.9 0.00 0.00 0.00 100 1014.2
20260506224712 51 292 0.0 1.7 0.00 0.00 0.00 100 1014.2
20260506224625 51 292 1.7 1.7 0.00 0.00 0.00 100 1014.2
20260506224525 51 292 0.9 1.7 0.00 0.00 0.00 100 1014.2
20260506224425 51 294 0.9 1.7 0.00 0.00 0.00 100 1014.2
20260506224325 51 297 0.9 1.7 0.00 0.00 0.00 100 1014.2
20260506224211 51 297 0.9 1.7 0.00 0.00 0.00 100 1014.2
20260506224125 51 297 0.9 1.7 0.00 0.00 0.00 100 1014.2
20260506224025 51 311 0.0 1.7 0.00 0.00 0.00 100 1014.2
20260506223926 51 316 0.9 0.9 0.00 0.00 0.00 100 1014.2
20260506223826 51 316 0.9 0.9 0.00 0.00 0.00 100 1014.2
20260506223712 51 319 0.9 1.7 0.00 0.00 0.00 100 1014.2
20260506223626 51 325 0.9 0.9 0.00 0.00 0.00 100 1014.1
20260506223526 51 346 0.9 0.9 0.00 0.00 0.00 100 1014.2
20260506223427 51 346 0.9 0.9 0.00 0.00 0.00 100 1014.1
20260506223327 51 346 0.9 0.9 0.00 0.00 0.00 100 1014.2
20260506223213 51 346 0.0 0.9 0.00 0.00 0.00 100 1014.2
20260506223126 51 346 0.0 0.9 0.00 0.00 0.00 100 1014.1
20260506223026 51 346 0.0 0.9 0.00 0.00 0.00 100 1014.2
20260506222926 52 346 0.0 0.9 0.00 0.00 0.00 100 1014.1
20260506222826 52 346 0.0 0.9 0.00 0.00 0.00 100 1014.1
20260506222712 52 346 1.7 1.7 0.00 0.00 0.00 100 1014.1
20260506222626 52 346 0.0 0.0 0.00 0.00 0.00 100 1014.1
20260506222526 52 346 0.0 0.0 0.00 0.00 0.00 100 1014.1
20260506222426 52 346 0.0 0.0 0.00 0.00 0.00 100 1014.1
20260506222326 52 346 0.0 0.0 0.00 0.00 0.00 100 1014.1
20260506222212 52 346 0.0 0.9 0.00 0.00 0.00 100 1014.1
20260506221946 52 346 0.0 0.9 0.00 0.00 0.00 100 1014.0
20260506221846 52 346 0.0 0.0 0.00 0.00 0.00 100 1014.0
20260506221746 52 346 0.0 0.9 0.00 0.00 0.00 100 1014.1
20260506221712 52 346 0.0 0.9 0.00 0.00 0.00 100 1014.1
20260506221645 52 346 0.0 0.0 0.00 0.00 0.00 100 1014.1
20260506221545 52 346 0.0 0.0 0.00 0.00 0.00 100 1014.1
20260506221445 52 346 0.0 0.0 0.00 0.00 0.00 100 1014.1
20260506221345 52 346 0.0 0.0 0.00 0.00 0.00 100 1014.1
20260506221245 52 346 0.0 0.9 0.00 0.00 0.00 100 1014.0
20260506221213 52 346 0.0 0.9 0.00 0.00 0.00 100 1014.0
20260506221146 52 346 0.0 0.9 0.00 0.00 0.00 100 1014.1
20260506221046 52 346 0.0 0.0 0.00 0.00 0.00 100 1014.0
20260506220946 52 346 0.0 0.0 0.00 0.00 0.00 100 1014.0
20260506220846 52 346 0.0 0.0 0.00 0.00 0.00 100 1014.0
20260506220746 52 346 0.0 1.7 0.00 0.00 0.00 100 1014.0
20260506220712 52 346 0.0 1.7 0.00 0.00 0.00 100 1014.0
20260506220646 52 346 0.0 1.7 0.00 0.00 0.00 100 1014.1
20260506220545 52 346 0.0 1.7 0.00 0.00 0.00 100 1014.0
20260506220445 52 346 1.7 1.7 0.00 0.00 0.00 100 1014.0
20260506220344 52 360 0.0 0.0 0.00 0.00 0.00 100 1014.0
20260506220244 52 360 0.0 2.6 0.00 0.00 0.00 100 1014.0
20260506220212 52 360 0.0 2.6 0.00 0.00 0.00 100 1014.0
20260506220144 52 360 0.9 2.6 0.00 0.00 0.00 100 1014.0
20260506220045 52 360 0.9 2.6 0.00 0.00 0.00 100 1014.0
20260506215945 52 5 0.0 2.6 0.00 0.00 0.00 100 1014.0
20260506215845 52 341 1.7 2.6 0.00 0.00 0.00 100 1014.0
20260506215745 52 40 0.0 1.7 0.00 0.00 0.00 100 1014.0
20260506215713 52 40 0.0 1.7 0.00 0.00 0.00 100 1014.0
20260506215646 52 40 0.9 1.7 0.00 0.00 0.00 100 1014.0
20260506215546 52 40 0.0 1.7 0.00 0.00 0.00 100 1014.0
20260506215446 52 40 0.9 1.7 0.00 0.00 0.00 100 1014.0
20260506215346 52 40 0.9 1.7 0.00 0.00 0.00 100 1014.0
20260506215245 52 40 0.9 2.6 0.00 0.00 0.00 100 1014.0
20260506215211 52 40 0.9 2.6 0.00 0.00 0.00 100 1014.0
20260506215145 52 40 0.0 2.6 0.00 0.00 0.00 100 1013.9
20260506215045 52 40 0.0 2.6 0.00 0.00 0.00 100 1013.9
20260506214945 52 47 0.0 2.6 0.00 0.00 0.00 100 1013.9
20260506214845 52 47 0.9 0.9 0.00 0.00 0.00 100 1013.9
20260506214744 52 47 0.9 2.6 0.00 0.00 0.00 100 1013.9
20260506214712 52 47 0.9 2.6 0.00 0.00 0.00 100 1013.9
20260506214646 52 59 1.7 1.7 0.00 0.00 0.00 100 1013.9
20260506214546 52 74 0.9 1.7 0.00 0.00 0.00 100 1013.9
20260506214446 52 90 1.7 1.7 0.00 0.00 0.00 100 1014.0
20260506214346 52 46 0.9 1.7 0.00 0.00 0.00 100 1013.9
20260506214245 52 59 0.9 2.6 0.00 0.00 0.00 100 1013.9
20260506214211 52 59 0.9 2.6 0.00 0.00 0.00 100 1013.9
20260506214145 52 67 0.9 2.6 0.00 0.00 0.00 100 1013.9
20260506214045 52 67 0.9 2.6 0.00 0.00 0.00 100 1013.9
20260506213945 52 84 0.0 2.6 0.00 0.00 0.00 100 1013.9
20260506213844 52 84 2.6 2.6 0.00 0.00 0.00 100 1013.9
20260506213746 52 71 0.9 2.6 0.00 0.00 0.00 100 1013.9
20260506213712 52 71 0.9 2.6 0.00 0.00 0.00 100 1013.9
20260506213646 52 40 0.9 2.6 0.00 0.00 0.00 100 1013.9
20260506213546 52 71 1.7 2.6 0.00 0.00 0.00 100 1013.9
20260506213446 52 57 1.7 2.6 0.00 0.00 0.00 100 1013.9
20260506213345 52 56 0.9 0.9 0.00 0.00 0.00 100 1013.9
20260506213245 52 56 0.0 2.6 0.00 0.00 0.00 100 1013.9
20260506213212 52 56 0.0 2.6 0.00 0.00 0.00 100 1013.9
20260506213146 52 42 2.6 2.6 0.00 0.00 0.00 100 1013.9
20260506213046 52 51 2.6 2.6 0.00 0.00 0.00 100 1013.9
20260506212946 52 29 0.9 0.9 0.00 0.00 0.00 100 1013.9
20260506212846 52 29 0.0 0.9 0.00 0.00 0.00 100 1013.8
20260506212746 52 29 0.9 2.6 0.00 0.00 0.00 100 1013.8
20260506212711 52 29 0.9 2.6 0.00 0.00 0.00 100 1013.8
20260506212645 52 47 0.9 1.7 0.00 0.00 0.00 100 1013.9
20260506212545 52 46 0.0 1.7 0.00 0.00 0.00 100 1013.8
20260506212445 52 46 0.9 1.7 0.00 0.00 0.00 100 1013.8
20260506212345 52 46 0.0 1.7 0.00 0.00 0.00 100 1013.8
20260506212244 52 46 1.7 2.6 0.00 0.00 0.00 100 1013.8
20260506212212 52 46 1.7 2.6 0.00 0.00 0.00 100 1013.8
20260506212144 52 67 0.9 2.6 0.00 0.00 0.00 100 1013.8
20260506212046 52 67 0.9 2.6 0.00 0.00 0.00 100 1013.8
20260506211946 52 28 0.9 2.6 0.00 0.00 0.00 100 1013.8
20260506211846 52 42 2.6 2.6 0.00 0.00 0.00 100 1013.8
20260506211746 52 48 0.0 2.6 0.00 0.00 0.00 100 1013.8
20260506211712 52 48 0.0 2.6 0.00 0.00 0.00 100 1013.8
20260506211645 52 40 1.7 2.6 0.00 0.00 0.00 100 1013.8
20260506211546 52 40 0.9 2.6 0.00 0.00 0.00 100 1013.8
20260506211445 52 34 0.9 2.6 0.00 0.00 0.00 100 1013.8
20260506211344 52 41 1.7 2.6 0.00 0.00 0.00 100 1013.8
20260506211244 52 14 1.7 2.6 0.00 0.00 0.00 100 1013.8
20260506211212 52 14 1.7 2.6 0.00 0.00 0.00 100 1013.8
20260506211144 52 23 0.9 2.6 0.00 0.00 0.00 100 1013.8
20260506211044 52 5 0.9 2.6 0.00 0.00 0.00 100 1013.8
20260506210944 52 22 1.7 2.6 0.00 0.00 0.00 100 1013.8
20260506210845 52 13 2.6 2.6 0.00 0.00 0.00 100 1013.8
20260506210745 52 5 0.9 2.6 0.00 0.00 0.00 100 1013.8
20260506210711 52 5 0.9 2.6 0.00 0.00 0.00 100 1013.8
20260506210645 52 5 1.7 1.7 0.00 0.00 0.00 100 1013.7
20260506210545 52 27 0.9 1.7 0.00 0.00 0.00 100 1013.8
20260506210445 52 23 1.7 1.7 0.00 0.00 0.00 100 1013.7
20260506210345 52 30 1.7 1.7 0.00 0.00 0.00 100 1013.7
20260506210245 52 39 2.6 2.6 0.00 0.00 0.00 100 1013.7
20260506210213 52 39 2.6 2.6 0.00 0.00 0.00 100 1013.7
20260506210145 52 27 1.7 1.7 0.00 0.00 0.00 100 1013.7
20260506210045 52 20 0.9 1.7 0.00 0.00 0.00 100 1013.7
20260506205945 52 20 0.9 1.7 0.00 0.00 0.00 100 1013.7
20260506205845 52 26 0.0 0.0 0.00 0.00 0.00 100 1013.7
20260506205745 52 26 0.9 1.7 0.00 0.00 0.00 100 1013.7
20260506205711 52 26 0.9 1.7 0.00 0.00 0.00 100 1013.7
20260506205645 52 28 1.7 1.7 0.00 0.00 0.00 100 1013.7
20260506205545 52 33 1.7 1.7 0.00 0.00 0.00 100 1013.7
20260506205445 52 22 0.9 1.7 0.00 0.00 0.00 100 1013.7
20260506205344 52 25 0.9 1.7 0.00 0.00 0.00 100 1013.7
20260506205245 52 26 2.6 2.6 0.00 0.00 0.00 100 1013.7
20260506205213 52 26 2.6 2.6 0.00 0.00 0.00 100 1013.7
20260506205145 52 15 0.9 2.6 0.00 0.00 0.00 100 1013.7
20260506205045 52 27 2.6 2.6 0.00 0.00 0.00 100 1013.7
20260506204945 52 19 2.6 2.6 0.00 0.00 0.00 100 1013.7
20260506204845 52 360 2.6 2.6 0.00 0.00 0.00 100 1013.7
20260506204745 52 32 0.0 2.6 0.00 0.00 0.00 100 1013.7
20260506204711 52 32 0.0 2.6 0.00 0.00 0.00 100 1013.7
20260506204645 52 33 0.9 2.6 0.00 0.00 0.00 100 1013.7
20260506204545 52 32 0.9 2.6 0.00 0.00 0.00 100 1013.7
20260506204445 52 26 0.9 2.6 0.00 0.00 0.00 100 1013.7
20260506204345 52 31 0.9 0.9 0.00 0.00 0.00 100 1013.7
20260506204245 52 31 0.9 1.7 0.00 0.00 0.00 100 1013.7
20260506204213 52 31 0.9 1.7 0.00 0.00 0.00 100 1013.7
20260506204144 52 31 0.0 1.7 0.00 0.00 0.00 100 1013.6
20260506204044 52 31 0.0 0.9 0.00 0.00 0.00 100 1013.6
20260506203944 52 31 0.0 0.9 0.00 0.00 0.00 100 1013.6
20260506203844 52 31 0.0 0.9 0.00 0.00 0.00 100 1013.6
20260506203745 52 31 1.7 1.7 0.00 0.00 0.00 100 1013.6
20260506203711 52 31 1.7 1.7 0.00 0.00 0.00 100 1013.6
20260506203645 52 31 0.9 1.7 0.00 0.00 0.00 100 1013.6
20260506203545 52 28 0.0 1.7 0.00 0.00 0.00 100 1013.6
20260506203445 52 28 0.9 1.7 0.00 0.00 0.00 100 1013.6
20260506203344 52 31 0.9 1.7 0.00 0.00 0.00 100 1013.6
20260506203244 52 31 0.9 0.9 0.00 0.00 0.00 100 1013.6
20260506203212 52 31 0.9 0.9 0.00 0.00 0.00 100 1013.6
20260506203146 52 31 0.0 0.9 0.00 0.00 0.00 100 1013.6
20260506203046 52 31 0.0 0.9 0.00 0.00 0.00 100 1013.5
20260506202946 52 31 0.0 0.9 0.00 0.00 0.00 100 1013.5
20260506202846 52 31 0.9 0.9 0.00 0.00 0.00 100 1013.6
20260506202746 52 33 0.0 2.6 0.00 0.00 0.00 100 1013.6
20260506202711 52 33 0.0 2.6 0.00 0.00 0.00 100 1013.6
20260506202645 52 33 0.9 2.6 0.00 0.00 0.00 100 1013.5
20260506202545 52 33 0.9 2.6 0.00 0.00 0.00 100 1013.6
20260506202445 52 36 1.7 2.6 0.00 0.00 0.00 100 1013.6
20260506202345 52 36 2.6 2.6 0.00 0.00 0.00 100 1013.5
20260506202245 52 33 0.9 1.7 0.00 0.00 0.00 100 1013.5
20260506202213 52 33 0.9 1.7 0.00 0.00 0.00 100 1013.5
20260506202145 52 33 1.7 1.7 0.00 0.00 0.00 100 1013.5
20260506202046 52 33 0.0 1.7 0.00 0.00 0.00 100 1013.5
20260506201946 52 33 0.0 0.9 0.00 0.00 0.00 100 1013.5
20260506201846 52 33 0.0 0.9 0.00 0.00 0.00 100 1013.5
20260506201745 52 33 0.9 2.6 0.00 0.00 0.00 100 1013.4
20260506201713 52 33 0.9 2.6 0.00 0.00 0.00 100 1013.4
20260506201645 52 34 0.0 1.7 0.00 0.00 0.00 100 1013.5
20260506201544 52 34 0.9 1.7 0.00 0.00 0.00 100 1013.5
20260506201444 52 34 0.0 1.7 0.00 0.00 0.00 100 1013.4
20260506201344 52 34 1.7 1.7 0.00 0.00 0.00 100 1013.5
20260506201244 52 34 0.0 1.7 0.00 0.00 0.00 100 1013.5
20260506201212 52 34 0.0 1.7 0.00 0.00 0.00 100 1013.5
20260506201145 52 34 0.9 1.7 0.00 0.00 0.00 100 1013.5
20260506201045 52 32 0.9 1.7 0.00 0.00 0.00 100 1013.5
20260506200945 52 32 0.0 1.7 0.00 0.00 0.00 100 1013.5
20260506200845 52 32 0.0 0.0 0.00 0.00 0.00 100 1013.5
20260506200745 52 32 0.9 1.7 0.00 0.00 0.00 100 1013.5
20260506200713 52 32 0.9 1.7 0.00 0.00 0.00 100 1013.5
20260506200645 52 32 0.0 1.7 0.00 0.00 0.00 100 1013.4
20260506200545 52 32 0.9 1.7 0.00 0.00 0.00 100 1013.4
20260506200445 52 32 0.9 0.9 0.00 0.00 0.00 100 1013.5
20260506200347 52 32 0.9 0.9 0.00 0.00 0.00 100 1013.4
20260506200246 52 32 0.0 1.7 0.00 0.00 0.00 100 1013.5
20260506200212 52 32 0.0 1.7 0.00 0.00 0.00 100 1013.5
20260506200145 52 32 0.9 0.9 0.00 0.00 0.00 100 1013.4
20260506200045 52 32 0.0 0.9 0.00 0.00 0.00 100 1013.5
20260506195945 52 32 0.0 0.9 0.00 0.00 0.00 100 1013.4
20260506195845 52 32 0.0 0.9 0.00 0.00 0.00 100 1013.4
20260506195745 52 32 0.9 1.7 0.00 0.00 0.00 100 1013.4
20260506195711 52 32 0.9 1.7 0.00 0.00 0.00 100 1013.4
20260506195645 52 32 0.9 0.9 0.00 0.00 0.00 100 1013.4
20260506195545 52 32 0.0 0.9 0.00 0.00 0.00 100 1013.4
20260506195444 52 32 0.9 0.9 0.00 0.00 0.00 100 1013.4
20260506195346 52 32 0.0 0.0 0.00 0.00 0.00 100 1013.4
20260506195246 52 32 0.0 1.7 0.00 0.00 0.00 100 1013.4
20260506195212 52 32 0.0 1.7 0.00 0.00 0.00 100 1013.4
20260506195146 52 32 0.0 1.7 0.00 0.00 0.00 100 1013.4
20260506195045 52 32 0.9 1.7 0.00 0.00 0.00 100 1013.3
20260506194945 52 32 0.0 1.7 0.00 0.00 0.00 100 1013.3
20260506194845 52 32 0.0 0.9 0.00 0.00 0.00 100 1013.4
20260506194745 52 32 0.9 1.7 0.00 0.00 0.00 100 1013.3
20260506194713 52 32 0.9 1.7 0.00 0.00 0.00 100 1013.3
20260506194644 52 32 0.0 1.7 0.00 0.00 0.00 100 1013.3
20260506194544 53 32 0.0 1.7 0.00 0.00 0.00 100 1013.3
20260506194445 53 32 0.0 1.7 0.00 0.00 0.00 100 1013.3
20260506194345 53 32 0.9 1.7 0.00 0.00 0.00 100 1013.3
20260506194245 53 32 0.9 2.6 0.00 0.00 0.00 100 1013.3
20260506194213 53 32 0.9 2.6 0.00 0.00 0.00 100 1013.3
20260506194145 53 32 0.0 2.6 0.00 0.00 0.00 100 1013.2
20260506194045 53 32 0.9 2.6 0.00 0.00 0.00 100 1013.3
20260506193946 53 32 0.0 2.6 0.00 0.00 0.00 100 1013.2
20260506193846 53 31 0.0 0.0 0.00 0.00 0.00 100 1013.2
20260506193746 53 31 0.0 0.9 0.00 0.00 0.00 100 1013.2
20260506193712 53 31 0.0 0.9 0.00 0.00 0.00 100 1013.2
20260506193646 53 31 0.0 0.9 0.00 0.00 0.00 100 1013.2
20260506193546 53 31 0.9 0.9 0.00 0.00 0.00 100 1013.2
20260506193446 53 31 0.0 0.9 0.00 0.00 0.00 100 1013.2
20260506193346 53 31 0.0 0.9 0.00 0.00 0.00 100 1013.2
20260506193246 53 31 0.0 1.7 0.00 0.00 0.00 100 1013.2